EW4266 Weather Reports


time (UTC)temp
C
wind
direction
speed
KPH
gust
KPH
rain 1hr
cm
rain 24hr
cm
rain mn
cm
humidity
%
barometer
mb
20260906174515 20 325 11.3 19.3 0.00 0.00 0.00 68 1017.3
20260906174436 20 317 9.7 19.3 0.00 0.00 0.00 69 1017.3
20260906174255 20 330 6.4 22.5 0.00 0.00 0.00 67 1017.3
20260906174105 20 328 8.0 22.5 0.00 0.00 0.00 66 1017.3
20260906174020 20 336 8.0 22.5 0.00 0.00 0.00 66 1017.3
20260906173850 20 337 11.3 22.5 0.00 0.00 0.00 66 1017.3
20260906173813 20 291 12.9 22.5 0.00 0.00 0.00 65 1017.3
20260906173525 20 347 11.3 22.5 0.00 0.00 0.00 68 1017.3
20260906173452 20 346 9.7 22.5 0.00 0.00 0.00 66 1017.3
20260906173355 20 311 11.3 22.5 0.00 0.00 0.00 66 1017.3
20260906173236 20 327 14.5 22.5 0.00 0.00 0.00 68 1017.3
20260906173200 20 336 14.5 22.5 0.00 0.00 0.00 69 1017.3
20260906173024 20 325 11.3 20.9 0.00 0.00 0.00 68 1017.4
20260906172936 20 360 11.3 20.9 0.00 0.00 0.00 68 1017.4
20260906172839 20 360 8.0 20.9 0.00 0.00 0.00 70 1017.4
20260906172741 20 340 9.7 20.9 0.00 0.00 0.00 66 1017.4
20260906172701 20 340 12.9 20.9 0.00 0.00 0.00 66 1017.4
20260906172607 20 5 12.9 20.9 0.00 0.00 0.00 64 1017.4
20260906172512 20 333 9.7 20.9 0.00 0.00 0.00 66 1017.4
20260906172432 20 349 11.3 20.9 0.00 0.00 0.00 66 1017.4
20260906172306 20 332 14.5 20.9 0.00 0.00 0.00 69 1017.4
20260906172218 20 355 12.9 20.9 0.00 0.00 0.00 68 1017.4
20260906172050 20 341 8.0 22.5 0.00 0.00 0.00 72 1017.5
20260906172012 20 346 6.4 22.5 0.00 0.00 0.00 68 1017.5
20260906171935 20 275 8.0 22.5 0.00 0.00 0.00 69 1017.5
20260906171820 20 325 11.3 22.5 0.00 0.00 0.00 68 1017.5
20260906171719 20 355 12.9 22.5 0.00 0.00 0.00 68 1017.5
20260906171550 20 321 9.7 22.5 0.00 0.00 0.00 67 1017.5
20260906171504 20 325 8.0 22.5 0.00 0.00 0.00 67 1017.5
20260906171335 20 342 14.5 22.5 0.00 0.00 0.00 66 1017.6
20260906171240 20 355 14.5 22.5 0.00 0.00 0.00 70 1017.6
20260906171112 20 310 9.7 22.5 0.00 0.00 0.00 71 1017.5
20260906171025 20 331 8.0 20.9 0.00 0.00 0.00 72 1017.5
20260906170857 19 306 9.7 20.9 0.00 0.00 0.00 70 1017.5
20260906170818 19 360 12.9 20.9 0.00 0.00 0.00 70 1017.5
20260906170641 19 333 12.9 20.9 0.00 0.00 0.00 71 1017.5
20260906170543 19 334 11.3 20.9 0.00 0.00 0.00 70 1017.5
20260906170427 19 335 11.3 20.9 0.00 0.00 0.00 69 1017.5
20260906170349 19 317 11.3 20.9 0.00 0.00 0.00 67 1017.5
20260906170231 19 317 11.3 19.3 0.00 0.00 0.00 67 1017.5
20260906170153 20 327 9.7 19.3 0.00 0.00 0.00 69 1017.5
20260906170059 20 320 8.0 19.3 0.00 0.00 0.00 69 1017.5
20260906165921 20 287 9.7 19.3 0.00 0.00 0.00 70 1017.6
20260906165846 20 355 11.3 19.3 0.00 0.00 0.00 69 1017.6
20260906165715 20 355 8.0 19.3 0.00 0.00 0.00 69 1017.5
20260906165637 20 344 6.4 17.7 0.00 0.00 0.00 69 1017.5
20260906165501 20 333 11.3 17.7 0.00 0.00 0.00 69 1017.6
20260906165423 20 355 11.3 17.7 0.00 0.00 0.00 72 1017.6
20260906165252 20 320 11.3 16.1 0.00 0.00 0.00 70 1017.6
20260906165201 20 311 9.7 16.1 0.00 0.00 0.00 70 1017.6
20260906165023 20 342 8.0 16.1 0.00 0.00 0.00 71 1017.6
20260906164949 20 300 6.4 17.7 0.00 0.00 0.00 71 1017.7
20260906164843 20 303 4.8 17.7 0.00 0.00 0.00 71 1017.7
20260906164806 20 317 3.2 17.7 0.00 0.00 0.00 71 1017.7
20260906164719 20 240 4.8 17.7 0.00 0.00 0.00 71 1017.7
20260906164530 20 297 9.7 17.7 0.00 0.00 0.00 70 1017.7
20260906164446 20 331 8.0 17.7 0.00 0.00 0.00 74 1017.7
20260906164315 19 5 11.3 20.9 0.00 0.00 0.00 73 1017.8
20260906164216 19 325 12.9 20.9 0.00 0.00 0.00 73 1017.7
20260906164059 19 342 11.3 20.9 0.00 0.00 0.00 77 1017.7
20260906164020 19 325 9.7 20.9 0.00 0.00 0.00 77 1017.7
20260906163836 18 344 6.4 20.9 0.00 0.00 0.00 75 1017.8
20260906163730 18 19 8.0 20.9 0.00 0.00 0.00 73 1017.8
20260906163654 18 17 8.0 20.9 0.00 0.00 0.00 73 1017.8
20260906163559 18 14 9.7 20.9 0.00 0.00 0.00 71 1017.8
20260906163521 18 11 9.7 20.9 0.00 0.00 0.00 71 1017.8
20260906163233 18 336 12.9 19.3 0.00 0.00 0.00 72 1017.9
20260906163136 18 333 12.9 19.3 0.00 0.00 0.00 72 1017.9
20260906163020 18 267 11.3 17.7 0.00 0.00 0.00 73 1017.9
20260906162953 18 320 11.3 17.7 0.00 0.00 0.00 73 1017.9
20260906162923 18 288 9.7 17.7 0.00 0.00 0.00 75 1017.9
20260906162802 18 333 9.7 16.1 0.00 0.00 0.00 77 1017.9
20260906162732 18 5 9.7 16.1 0.00 0.00 0.00 77 1017.9
20260906162537 18 311 4.8 16.1 0.00 0.00 0.00 76 1018.0
20260906162458 18 336 4.8 16.1 0.00 0.00 0.00 76 1018.0
20260906162323 18 333 4.8 16.1 0.00 0.00 0.00 76 1018.0
20260906162237 18 334 4.8 16.1 0.00 0.00 0.00 78 1018.1
20260906162107 18 338 8.0 16.1 0.00 0.00 0.00 75 1018.1
20260906162030 18 297 9.7 16.1 0.00 0.00 0.00 76 1018.1
20260906161837 18 332 11.3 16.1 0.00 0.00 0.00 77 1018.1
20260906161740 18 18 9.7 16.1 0.00 0.00 0.00 78 1018.1
20260906161624 18 355 9.7 16.1 0.00 0.00 0.00 77 1018.1
20260906161518 18 342 11.3 16.1 0.00 0.00 0.00 78 1018.1
20260906161431 18 302 9.7 16.1 0.00 0.00 0.00 78 1018.2
20260906161335 17 323 8.0 16.1 0.00 0.00 0.00 79 1018.1
20260906161256 17 316 6.4 12.9 0.00 0.00 0.00 79 1018.2
20260906161126 17 322 4.8 19.3 0.00 0.00 0.00 76 1018.1
20260906161040 17 315 4.8 19.3 0.00 0.00 0.00 78 1018.2
20260906160909 17 315 8.0 19.3 0.00 0.00 0.00 80 1018.2
20260906160832 17 348 9.7 19.3 0.00 0.00 0.00 79 1018.3
20260906160716 17 323 9.7 19.3 0.00 0.00 0.00 79 1018.4
20260906160637 17 330 9.7 19.3 0.00 0.00 0.00 77 1018.4
20260906160509 17 348 11.3 19.3 0.00 0.00 0.00 78 1018.4
20260906160322 17 330 11.3 19.3 0.00 0.00 0.00 81 1018.4
20260906160224 17 360 6.4 17.7 0.00 0.00 0.00 79 1018.4
20260906160129 17 45 6.4 17.7 0.00 0.00 0.00 80 1018.4
20260906160051 17 12 8.0 17.7 0.00 0.00 0.00 81 1018.4
20260906155952 17 351 9.7 17.7 0.00 0.00 0.00 81 1018.4
20260906155854 17 335 8.0 17.7 0.00 0.00 0.00 81 1018.5
20260906155815 17 342 6.4 17.7 0.00 0.00 0.00 81 1018.5
20260906155721 17 5 3.2 12.9 0.00 0.00 0.00 82 1018.5
20260906155641 17 5 3.2 12.9 0.00 0.00 0.00 80 1018.5
20260906155513 17 63 4.8 12.9 0.00 0.00 0.00 81 1018.5
20260906155406 17 46 4.8 12.9 0.00 0.00 0.00 81 1018.5
20260906155236 16 351 0.0 12.9 0.00 0.00 0.00 83 1018.5
20260906155137 16 20 0.0 12.9 0.00 0.00 0.00 83 1018.5
20260906154923 16 355 1.6 12.9 0.00 0.00 0.00 82 1018.5
20260906154847 16 327 3.2 12.9 0.00 0.00 0.00 83 1018.4
20260906154729 16 355 6.4 12.9 0.00 0.00 0.00 82 1018.5
20260906154643 16 346 8.0 12.9 0.00 0.00 0.00 82 1018.5
20260906154453 16 327 8.0 14.5 0.00 0.00 0.00 83 1018.5
20260906154415 16 325 6.4 14.5 0.00 0.00 0.00 83 1018.5
20260906154246 16 342 4.8 14.5 0.00 0.00 0.00 83 1018.5
20260906154141 16 336 4.8 14.5 0.00 0.00 0.00 84 1018.4
20260906154026 16 342 6.4 14.5 0.00 0.00 0.00 83 1018.5
20260906153950 16 350 6.4 14.5 0.00 0.00 0.00 83 1018.5
20260906153917 16 333 8.0 14.5 0.00 0.00 0.00 83 1018.5
20260906153819 16 348 9.7 14.5 0.00 0.00 0.00 83 1018.5
20260906153741 16 328 8.0 14.5 0.00 0.00 0.00 83 1018.5
20260906153524 16 340 6.4 14.5 0.00 0.00 0.00 83 1018.5
20260906153426 16 324 6.4 14.5 0.00 0.00 0.00 83 1018.5
20260906153331 16 329 6.4 14.5 0.00 0.00 0.00 83 1018.5
20260906153253 16 342 8.0 16.1 0.00 0.00 0.00 83 1018.5
20260906153216 16 340 8.0 16.1 0.00 0.00 0.00 83 1018.5
20260906153056 16 348 8.0 16.1 0.00 0.00 0.00 83 1018.5
20260906153012 16 341 8.0 16.1 0.00 0.00 0.00 82 1018.6
20260906152734 16 5 9.7 16.1 0.00 0.00 0.00 83 1018.6
20260906152650 16 324 8.0 16.1 0.00 0.00 0.00 83 1018.6
20260906152551 16 5 9.7 16.1 0.00 0.00 0.00 82 1018.6
20260906152512 16 355 8.0 16.1 0.00 0.00 0.00 82 1018.6
20260906152427 16 328 8.0 16.1 0.00 0.00 0.00 83 1018.6
20260906152246 16 360 4.8 16.1 0.00 0.00 0.00 83 1018.6
20260906152148 16 360 8.0 16.1 0.00 0.00 0.00 83 1018.6
20260906152031 16 5 8.0 16.1 0.00 0.00 0.00 83 1018.6
20260906151953 16 360 8.0 16.1 0.00 0.00 0.00 82 1018.6
20260906151814 16 5 11.3 16.1 0.00 0.00 0.00 83 1018.6
20260906151735 16 347 12.9 16.1 0.00 0.00 0.00 83 1018.6
20260906151606 16 335 11.3 16.1 0.00 0.00 0.00 83 1018.6
20260906151533 16 343 11.3 16.1 0.00 0.00 0.00 83 1018.6
20260906151336 16 348 8.0 16.1 0.00 0.00 0.00 83 1018.6
20260906151258 16 360 9.7 16.1 0.00 0.00 0.00 83 1018.6
20260906151202 16 344 9.7 16.1 0.00 0.00 0.00 83 1018.6
20260906151126 16 5 11.3 16.1 0.00 0.00 0.00 83 1018.6
20260906150928 15 360 9.7 14.5 0.00 0.00 0.00 84 1018.5
20260906150830 15 337 8.0 14.5 0.00 0.00 0.00 84 1018.5
20260906150733 15 348 8.0 14.5 0.00 0.00 0.00 83 1018.5
20260906150634 15 337 8.0 14.5 0.00 0.00 0.00 84 1018.6
20260906150601 15 346 8.0 14.5 0.00 0.00 0.00 84 1018.6
20260906150503 15 338 8.0 12.9 0.00 0.00 0.00 84 1018.6
20260906150344 15 351 6.4 12.9 0.00 0.00 0.00 85 1018.6
20260906150228 15 62 4.8 16.1 0.00 0.00 0.00 85 1018.6
20260906150149 15 344 4.8 16.1 0.00 0.00 0.00 85 1018.6
20260906145930 15 344 4.8 16.1 0.00 0.00 0.00 84 1018.6
20260906145853 15 13 4.8 16.1 0.00 0.00 0.00 85 1018.6
20260906145756 15 5 8.0 16.1 0.00 0.00 0.00 85 1018.7
20260906145657 15 355 8.0 16.1 0.00 0.00 0.00 85 1018.6
20260906145619 15 336 8.0 16.1 0.00 0.00 0.00 85 1018.6
20260906145455 15 326 8.0 16.1 0.00 0.00 0.00 84 1018.7
20260906145428 15 355 6.4 16.1 0.00 0.00 0.00 84 1018.7
20260906145227 15 17 8.0 16.1 0.00 0.00 0.00 85 1018.6
20260906145141 15 350 9.7 16.1 0.00 0.00 0.00 85 1018.6
20260906145026 15 350 9.7 16.1 0.00 0.00 0.00 85 1018.6
20260906144948 15 342 9.7 16.1 0.00 0.00 0.00 85 1018.7
20260906144912 15 327 11.3 16.1 0.00 0.00 0.00 85 1018.6
20260906144756 15 346 9.7 17.7 0.00 0.00 0.00 85 1018.6
20260906144718 15 5 9.7 17.7 0.00 0.00 0.00 85 1018.6
20260906144525 15 355 9.7 17.7 0.00 0.00 0.00 86 1018.6
20260906144428 15 348 8.0 17.7 0.00 0.00 0.00 85 1018.6
20260906144332 15 327 6.4 17.7 0.00 0.00 0.00 86 1018.6
20260906144253 15 341 6.4 17.7 0.00 0.00 0.00 86 1018.6
20260906144214 15 340 6.4 17.7 0.00 0.00 0.00 86 1018.6
20260906144119 15 13 6.4 17.7 0.00 0.00 0.00 87 1018.6
20260906144040 15 348 8.0 17.7 0.00 0.00 0.00 86 1018.6
20260906143910 15 351 11.3 17.7 0.00 0.00 0.00 85 1018.5
20260906143824 15 329 8.0 16.1 0.00 0.00 0.00 86 1018.5
20260906143655 15 9 4.8 9.7 0.00 0.00 0.00 86 1018.4
20260906143616 15 13 6.4 9.7 0.00 0.00 0.00 86 1018.4
20260906143424 15 355 3.2 9.7 0.00 0.00 0.00 87 1018.5
20260906143325 15 15 0.0 6.4 0.00 0.00 0.00 87 1018.4
20260906143229 15 332 0.0 0.0 0.00 0.00 0.00 87 1018.4
20260906143130 15 336 0.0 0.0 0.00 0.00 0.00 87 1018.4
20260906143001 15 329 0.0 0.0 0.00 0.00 0.00 87 1018.4
20260906142917 15 360 0.0 0.0 0.00 0.00 0.00 87 1018.4
20260906142747 15 339 0.0 0.0 0.00 0.00 0.00 86 1018.4
20260906142648 15 335 0.0 0.0 0.00 0.00 0.00 86 1018.4
20260906142611 15 319 0.0 0.0 0.00 0.00 0.00 85 1018.4
20260906142435 15 355 0.0 0.0 0.00 0.00 0.00 86 1018.4
20260906142334 15 334 0.0 0.0 0.00 0.00 0.00 87 1018.4
20260906142256 15 330 0.0 0.0 0.00 0.00 0.00 87 1018.4
20260906142219 15 350 0.0 0.0 0.00 0.00 0.00 87 1018.4
20260906142133 15 317 0.0 0.0 0.00 0.00 0.00 86 1018.4
20260906142004 15 348 0.0 0.0 0.00 0.00 0.00 87 1018.4
20260906141844 15 342 0.0 0.0 0.00 0.00 0.00 87 1018.4
20260906141728 15 341 0.0 0.0 0.00 0.00 0.00 86 1018.4
20260906141649 15 355 0.0 0.0 0.00 0.00 0.00 86 1018.4
20260906141605 15 5 0.0 0.0 0.00 0.00 0.00 86 1018.4
20260906141527 15 13 0.0 0.0 0.00 0.00 0.00 86 1018.4
20260906141338 15 5 0.0 0.0 0.00 0.00 0.00 86 1018.4
20260906141257 15 351 0.0 0.0 0.00 0.00 0.00 87 1018.4
20260906141106 15 360 0.0 0.0 0.00 0.00 0.00 86 1018.4
20260906141027 15 339 0.0 0.0 0.00 0.00 0.00 87 1018.4
20260906140831 15 360 0.0 0.0 0.00 0.00 0.00 87 1018.3
20260906140752 15 355 0.0 0.0 0.00 0.00 0.00 87 1018.4
20260906140656 15 18 0.0 0.0 0.00 0.00 0.00 87 1018.4
20260906140618 15 333 0.0 0.0 0.00 0.00 0.00 87 1018.3
20260906140449 15 349 0.0 0.0 0.00 0.00 0.00 88 1018.4
20260906140403 15 350 0.0 0.0 0.00 0.00 0.00 89 1018.4
20260906140211 15 331 0.0 0.0 0.00 0.00 0.00 88 1018.4
20260906140132 15 334 0.0 0.0 0.00 0.00 0.00 88 1018.4
20260906140005 15 319 0.0 0.0 0.00 0.00 0.00 88 1018.3
20260906135923 15 339 0.0 0.0 0.00 0.00 0.00 88 1018.3
20260906135733 14 319 0.0 0.0 0.00 0.00 0.00 90 1018.3
20260906135629 14 337 0.0 0.0 0.00 0.00 0.00 90 1018.4
20260906135524 14 355 0.0 0.0 0.00 0.00 0.00 90 1018.4
20260906135445 14 348 0.0 0.0 0.00 0.00 0.00 89 1018.3
20260906135418 14 320 0.0 0.0 0.00 0.00 0.00 90 1018.4
20260906135242 14 315 0.0 0.0 0.00 0.00 0.00 88 1018.4
20260906135143 14 319 0.0 0.0 0.00 0.00 0.00 89 1018.3
20260906135032 14 346 0.0 0.0 0.00 0.00 0.00 89 1018.4
20260906134955 14 320 0.0 0.0 0.00 0.00 0.00 89 1018.3
20260906134917 14 313 0.0 0.0 0.00 0.00 0.00 90 1018.4
20260906134821 14 323 0.0 0.0 0.00 0.00 0.00 89 1018.4
20260906134742 14 323 0.0 0.0 0.00 0.00 0.00 89 1018.3
20260906134611 14 346 0.0 0.0 0.00 0.00 0.00 89 1018.4
20260906134525 13 300 0.0 0.0 0.00 0.00 0.00 89 1018.4
20260906134336 13 344 0.0 0.0 0.00 0.00 0.00 90 1018.4
20260906134249 13 331 0.0 0.0 0.00 0.00 0.00 89 1018.4
20260906134119 13 325 0.0 0.0 0.00 0.00 0.00 90 1018.4
20260906134041 13 350 0.0 0.0 0.00 0.00 0.00 90 1018.4
20260906133934 13 326 0.0 0.0 0.00 0.00 0.00 90 1018.3
20260906133808 13 300 0.0 0.0 0.00 0.00 0.00 89 1018.3
20260906133729 13 330 0.0 0.0 0.00 0.00 0.00 89 1018.3
20260906133553 13 310 0.0 0.0 0.00 0.00 0.00 89 1018.3
20260906133515 13 317 0.0 0.0 0.00 0.00 0.00 89 1018.2
20260906133325 13 332 0.0 0.0 0.00 0.00 0.00 89 1018.2
20260906133239 13 321 0.0 0.0 0.00 0.00 0.00 89 1018.2
20260906133110 13 330 0.0 0.0 0.00 0.00 0.00 89 1018.2
20260906133031 13 342 0.0 0.0 0.00 0.00 0.00 89 1018.2
20260906132835 13 324 0.0 0.0 0.00 0.00 0.00 90 1018.2
20260906132758 13 337 0.0 0.0 0.00 0.00 0.00 89 1018.2
20260906132700 13 328 0.0 0.0 0.00 0.00 0.00 89 1018.3
20260906132625 13 338 0.0 0.0 0.00 0.00 0.00 89 1018.3
20260906132431 13 323 0.0 0.0 0.00 0.00 0.00 89 1018.2
20260906132331 13 317 0.0 0.0 0.00 0.00 0.00 89 1018.2
20260906132236 13 332 0.0 0.0 0.00 0.00 0.00 89 1018.2
20260906132157 13 291 0.0 0.0 0.00 0.00 0.00 89 1018.2
20260906132008 13 314 0.0 0.0 0.00 0.00 0.00 89 1018.2
20260906131923 13 319 0.0 0.0 0.00 0.00 0.00 89 1018.2
20260906131754 13 329 0.0 0.0 0.00 0.00 0.00 89 1018.2
20260906131715 13 323 0.0 0.0 0.00 0.00 0.00 89 1018.2
20260906131546 13 317 0.0 0.0 0.00 0.00 0.00 89 1018.2
20260906131446 13 321 0.0 0.0 0.00 0.00 0.00 89 1018.2
20260906131407 13 323 0.0 0.0 0.00 0.00 0.00 89 1018.1
20260906131312 13 332 0.0 0.0 0.00 0.00 0.00 89 1018.1
20260906131233 13 316 0.0 0.0 0.00 0.00 0.00 89 1018.1
20260906131102 13 337 0.0 0.0 0.00 0.00 0.00 88 1018.1
20260906131018 13 304 0.0 0.0 0.00 0.00 0.00 89 1018.1
20260906130736 14 302 0.0 0.0 0.00 0.00 0.00 88 1018.1
20260906130650 14 344 0.0 0.0 0.00 0.00 0.00 88 1018.0
20260906130520 14 335 0.0 0.0 0.00 0.00 0.00 89 1018.0
20260906130441 14 355 0.0 0.0 0.00 0.00 0.00 88 1018.0
20260906130305 14 318 0.0 0.0 0.00 0.00 0.00 88 1018.1
20260906130227 14 316 0.0 0.0 0.00 0.00 0.00 88 1018.1
20260906130041 14 333 0.0 0.0 0.00 0.00 0.00 88 1018.0
20260906125936 14 323 0.0 0.0 0.00 0.00 0.00 88 1018.0
20260906125859 14 293 0.0 0.0 0.00 0.00 0.00 88 1018.0
20260906125723 14 336 0.0 0.0 0.00 0.00 0.00 88 1018.0
20260906125638 14 350 0.0 0.0 0.00 0.00 0.00 89 1018.0
20260906125541 14 329 0.0 0.0 0.00 0.00 0.00 89 1018.0
20260906125454 14 355 0.0 0.0 0.00 0.00 0.00 89 1018.0
20260906125415 14 336 0.0 0.0 0.00 0.00 0.00 89 1018.0
20260906125223 14 337 0.0 0.0 0.00 0.00 0.00 90 1018.0
20260906125127 14 336 0.0 0.0 0.00 0.00 0.00 90 1017.9
20260906125030 14 330 0.0 0.0 0.00 0.00 0.00 90 1018.0
20260906124931 14 355 0.0 0.0 0.00 0.00 0.00 90 1018.0
20260906124743 14 351 0.0 0.0 0.00 0.00 0.00 90 1017.9
20260906124636 14 12 0.0 0.0 0.00 0.00 0.00 89 1017.9
20260906124558 14 30 0.0 0.0 0.00 0.00 0.00 89 1017.9
20260906124512 14 360 0.0 0.0 0.00 0.00 0.00 89 1017.9
20260906124433 14 28 0.0 0.0 0.00 0.00 0.00 89 1017.9
20260906124256 14 16 0.0 0.0 0.00 0.00 0.00 90 1017.9
20260906124149 13 13 0.0 0.0 0.00 0.00 0.00 90 1017.9
20260906124019 13 320 0.0 0.0 0.00 0.00 0.00 90 1018.0
20260906123859 13 350 0.0 0.0 0.00 0.00 0.00 90 1018.0
20260906123801 13 355 0.0 0.0 0.00 0.00 0.00 89 1018.0
20260906123642 13 22 0.0 0.0 0.00 0.00 0.00 89 1018.0
20260906123525 13 355 0.0 0.0 0.00 0.00 0.00 89 1018.0
20260906123448 13 346 0.0 0.0 0.00 0.00 0.00 89 1018.0
20260906123228 13 355 0.0 0.0 0.00 0.00 0.00 89 1018.0
20260906123135 13 15 0.0 0.0 0.00 0.00 0.00 89 1018.0
20260906123038 13 80 0.0 0.0 0.00 0.00 0.00 89 1018.0
20260906123000 13 18 0.0 0.0 0.00 0.00 0.00 89 1018.0
20260906122923 13 348 0.0 0.0 0.00 0.00 0.00 89 1018.0
20260906122805 13 355 0.0 0.0 0.00 0.00 0.00 90 1018.1
20260906122725 13 338 0.0 0.0 0.00 0.00 0.00 90 1018.1
20260906122557 13 5 0.0 0.0 0.00 0.00 0.00 90 1018.0
20260906122450 13 9 0.0 0.0 0.00 0.00 0.00 90 1018.0
20260906122301 14 346 0.0 0.0 0.00 0.00 0.00 89 1018.0
20260906122222 13 328 0.0 0.0 0.00 0.00 0.00 89 1018.0
20260906122025 13 349 0.0 0.0 0.00 0.00 0.00 89 1017.9
20260906121933 14 355 0.0 0.0 0.00 0.00 0.00 89 1017.9
20260906121833 14 327 0.0 0.0 0.00 0.00 0.00 90 1017.9
20260906121754 13 333 0.0 0.0 0.00 0.00 0.00 90 1017.9
20260906121715 14 355 0.0 0.0 0.00 0.00 0.00 90 1017.9
20260906121536 13 355 0.0 0.0 0.00 0.00 0.00 90 1017.9
20260906121458 13 30 0.0 0.0 0.00 0.00 0.00 90 1017.8
20260906121340 13 331 0.0 0.0 0.00 0.00 0.00 90 1017.7
20260906121303 13 334 0.0 0.0 0.00 0.00 0.00 90 1017.7
20260906121235 13 355 0.0 0.0 0.00 0.00 0.00 90 1017.7
20260906121100 13 355 0.0 0.0 0.00 0.00 0.00 90 1017.7
20260906121031 13 343 0.0 0.0 0.00 0.00 0.00 90 1017.7
20260906120901 13 350 0.0 0.0 0.00 0.00 0.00 90 1017.7
20260906120728 13 355 0.0 0.0 0.00 0.00 0.00 90 1017.7
20260906120649 13 338 0.0 0.0 0.00 0.00 0.00 90 1017.7
20260906120513 13 355 0.0 0.0 0.00 0.00 0.00 91 1017.7
20260906120435 13 5 0.0 0.0 0.00 0.00 0.00 91 1017.7
20260906120253 13 337 0.0 0.0 0.00 0.00 0.00 91 1017.7
20260906120154 13 322 0.0 0.0 0.00 0.00 0.00 91 1017.7
20260906120038 13 346 0.0 0.0 0.00 0.00 0.00 91 1017.7
20260906120012 13 329 0.0 0.0 0.00 0.00 0.00 91 1017.7
20260906115853 13 324 0.0 0.0 0.00 0.00 0.00 90 1017.7
20260906115815 13 342 0.0 0.0 0.00 0.00 0.00 91 1017.6
20260906115644 13 325 0.0 0.0 0.00 0.00 0.00 91 1017.6
20260906115524 13 360 0.0 0.0 0.00 0.00 0.00 90 1017.6
20260906115427 13 350 0.0 0.0 0.00 0.00 0.00 90 1017.6
20260906115350 13 325 0.0 0.0 0.00 0.00 0.00 91 1017.6
20260906115310 13 328 0.0 0.0 0.00 0.00 0.00 91 1017.6
20260906115213 13 323 0.0 0.0 0.00 0.00 0.00 91 1017.6
20260906115133 13 345 0.0 0.0 0.00 0.00 0.00 91 1017.6
20260906115005 13 344 0.0 0.0 0.00 0.00 0.00 91 1017.6
20260906114858 13 338 0.0 0.0 0.00 0.00 0.00 91 1017.6
20260906114727 13 355 0.0 0.0 0.00 0.00 0.00 91 1017.6
20260906114629 13 5 0.0 0.0 0.00 0.00 0.00 91 1017.6
20260906114437 13 326 0.0 0.0 0.00 0.00 0.00 91 1017.5
20260906114338 13 327 0.0 0.0 0.00 0.00 0.00 91 1017.5
20260906114223 13 350 0.0 0.0 0.00 0.00 0.00 91 1017.5
20260906114145 13 360 0.0 0.0 0.00 0.00 0.00 91 1017.5
20260906113927 13 327 0.0 0.0 0.00 0.00 0.00 91 1017.5
20260906113851 13 317 0.0 0.0 0.00 0.00 0.00 91 1017.6
20260906113754 13 355 0.0 0.0 0.00 0.00 0.00 91 1017.5
20260906113717 13 345 0.0 0.0 0.00 0.00 0.00 91 1017.5
20260906113546 13 13 0.0 0.0 0.00 0.00 0.00 92 1017.4
20260906113424 13 326 0.0 0.0 0.00 0.00 0.00 92 1017.4
20260906113327 13 14 0.0 0.0 0.00 0.00 0.00 92 1017.4
20260906113248 13 21 0.0 0.0 0.00 0.00 0.00 92 1017.4
20260906113117 13 342 0.0 0.0 0.00 0.00 0.00 92 1017.4
20260906113020 13 342 0.0 0.0 0.00 0.00 0.00 92 1017.4
20260906112933 13 335 0.0 0.0 0.00 0.00 0.00 92 1017.3
20260906112744 13 332 0.0 0.0 0.00 0.00 0.00 92 1017.3
20260906112640 13 340 0.0 0.0 0.00 0.00 0.00 92 1017.3
20260906112523 13 342 0.0 0.0 0.00 0.00 0.00 92 1017.3
20260906112448 13 343 0.0 0.0 0.00 0.00 0.00 92 1017.3
20260906112411 13 344 0.0 0.0 0.00 0.00 0.00 92 1017.3
20260906112315 13 346 0.0 0.0 0.00 0.00 0.00 92 1017.3
20260906112235 13 335 0.0 0.0 0.00 0.00 0.00 92 1017.3
20260906112106 13 5 0.0 0.0 0.00 0.00 0.00 92 1017.2
20260906112031 13 321 0.0 0.0 0.00 0.00 0.00 92 1017.2
20260906111902 13 333 0.0 0.0 0.00 0.00 0.00 92 1017.3
20260906111823 13 340 0.0 0.0 0.00 0.00 0.00 92 1017.3
20260906111627 13 348 0.0 0.0 0.00 0.00 0.00 92 1017.3
20260906111550 13 346 0.0 0.0 0.00 0.00 0.00 92 1017.2
20260906111434 13 331 0.0 0.0 0.00 0.00 0.00 92 1017.2
20260906111342 13 347 0.0 0.0 0.00 0.00 0.00 92 1017.2
20260906111235 13 329 0.0 0.0 0.00 0.00 0.00 92 1017.2
20260906111158 13 310 0.0 0.0 0.00 0.00 0.00 92 1017.2
20260906111114 13 335 0.0 0.0 0.00 0.00 0.00 92 1017.2
20260906110924 13 5 0.0 0.0 0.00 0.00 0.00 92 1017.2
20260906110838 13 319 0.0 0.0 0.00 0.00 0.00 92 1017.2
20260906110708 13 336 0.0 0.0 0.00 0.00 0.00 92 1017.2
20260906110629 13 329 0.0 0.0 0.00 0.00 0.00 92 1017.2
20260906110434 13 319 0.0 0.0 0.00 0.00 0.00 92 1017.1
20260906110359 13 310 0.0 0.0 0.00 0.00 0.00 92 1017.0
20260906110241 13 313 0.0 0.0 0.00 0.00 0.00 91 1017.0
20260906110125 13 328 0.0 0.0 0.00 0.00 0.00 92 1017.0
20260906110045 13 319 0.0 0.0 0.00 0.00 0.00 92 1017.0
20260906110007 13 314 0.0 0.0 0.00 0.00 0.00 92 1017.0
20260906105908 13 333 0.0 0.0 0.00 0.00 0.00 92 1017.0
20260906105823 13 319 0.0 0.0 0.00 0.00 0.00 92 1017.0
20260906105634 13 345 0.0 0.0 0.00 0.00 0.00 91 1016.9
20260906105530 13 321 0.0 0.0 0.00 0.00 0.00 91 1016.9
20260906105455 13 323 0.0 0.0 0.00 0.00 0.00 92 1016.9
20260906105338 13 329 0.0 0.0 0.00 0.00 0.00 92 1016.8
20260906105301 13 331 0.0 0.0 0.00 0.00 0.00 92 1016.8
20260906105124 13 315 0.0 0.0 0.00 0.00 0.00 92 1016.8
20260906105044 13 302 0.0 0.0 0.00 0.00 0.00 92 1016.8
20260906104927 13 331 0.0 0.0 0.00 0.00 0.00 92 1016.7
20260906104849 13 315 0.0 0.0 0.00 0.00 0.00 92 1016.8
20260906104718 13 329 0.0 0.0 0.00 0.00 0.00 92 1016.8
20260906104633 13 338 0.0 0.0 0.00 0.00 0.00 92 1016.8
20260906104502 13 342 0.0 0.0 0.00 0.00 0.00 92 1016.8
20260906104403 13 342 0.0 0.0 0.00 0.00 0.00 92 1016.8
20260906104340 13 342 0.0 0.0 0.00 0.00 0.00 92 1016.8
20260906104145 13 338 0.0 0.0 0.00 0.00 0.00 92 1016.7
20260906104106 13 331 0.0 0.0 0.00 0.00 0.00 92 1016.7
20260906104010 13 339 0.0 0.0 0.00 0.00 0.00 92 1016.7
20260906103932 13 339 0.0 0.0 0.00 0.00 0.00 92 1016.7
20260906103802 13 342 0.0 0.0 0.00 0.00 0.00 91 1016.7
20260906103716 13 325 0.0 0.0 0.00 0.00 0.00 91 1016.7
20260906103528 13 331 0.0 0.0 0.00 0.00 0.00 92 1016.7
20260906103422 13 331 0.0 0.0 0.00 0.00 0.00 91 1016.7
20260906103345 13 321 0.0 0.0 0.00 0.00 0.00 92 1016.7
20260906103242 13 325 0.0 0.0 0.00 0.00 0.00 92 1016.7
20260906103126 13 317 0.0 0.0 0.00 0.00 0.00 92 1016.7
20260906103027 13 325 0.0 0.0 0.00 0.00 0.00 92 1016.7
20260906102951 13 334 0.0 0.0 0.00 0.00 0.00 92 1016.7
20260906102852 13 333 0.0 0.0 0.00 0.00 0.00 92 1016.7
20260906102814 13 342 0.0 0.0 0.00 0.00 0.00 92 1016.6
20260906102715 13 342 0.0 0.0 0.00 0.00 0.00 92 1016.7
20260906102622 13 349 0.0 0.0 0.00 0.00 0.00 91 1016.7
20260906102543 13 323 0.0 0.0 0.00 0.00 0.00 92 1016.6
20260906102414 13 17 0.0 0.0 0.00 0.00 0.00 91 1016.7
20260906102331 13 326 0.0 0.0 0.00 0.00 0.00 92 1016.7
20260906102202 13 360 0.0 0.0 0.00 0.00 0.00 92 1016.7
20260906102124 13 336 0.0 0.0 0.00 0.00 0.00 92 1016.7
20260906101955 13 322 0.0 0.0 0.00 0.00 0.00 91 1016.6
20260906101848 13 342 0.0 0.0 0.00 0.00 0.00 91 1016.7
20260906101708 13 330 0.0 0.0 0.00 0.00 0.00 91 1016.6
20260906101608 13 316 0.0 0.0 0.00 0.00 0.00 91 1016.6
20260906101512 13 350 0.0 0.0 0.00 0.00 0.00 91 1016.6
20260906101434 13 350 0.0 0.0 0.00 0.00 0.00 91 1016.6
20260906101306 13 325 0.0 0.0 0.00 0.00 0.00 91 1016.6
20260906101221 13 348 0.0 0.0 0.00 0.00 0.00 91 1016.6
20260906101031 13 334 0.0 0.0 0.00 0.00 0.00 91 1016.6
20260906100950 13 355 0.0 0.0 0.00 0.00 0.00 91 1016.6
20260906100819 13 329 0.0 0.0 0.00 0.00 0.00 91 1016.6
20260906100739 13 324 0.0 0.0 0.00 0.00 0.00 91 1016.6
20260906100610 13 348 0.0 0.0 0.00 0.00 0.00 91 1016.6
20260906100424 13 324 0.0 0.0 0.00 0.00 0.00 91 1016.6
20260906100326 13 333 0.0 0.0 0.00 0.00 0.00 91 1016.6
20260906100247 13 330 0.0 0.0 0.00 0.00 0.00 91 1016.6
20260906100006 13 331 0.0 0.0 0.00 0.00 0.00 91 1016.6
20260906095839 13 338 0.0 0.0 0.00 0.00 0.00 91 1016.6
20260906095810 13 329 0.0 0.0 0.00 0.00 0.00 92 1016.6
20260906095719 13 342 0.0 0.0 0.00 0.00 0.00 91 1016.6
20260906095640 13 342 0.0 0.0 0.00 0.00 0.00 92 1016.6
20260906095508 13 355 0.0 0.0 0.00 0.00 0.00 91 1016.4
20260906095421 13 334 0.0 0.0 0.00 0.00 0.00 92 1016.4
20260906095231 13 344 0.0 0.0 0.00 0.00 0.00 92 1016.4
20260906095146 13 331 0.0 0.0 0.00 0.00 0.00 91 1016.4
20260906094956 13 341 0.0 0.0 0.00 0.00 0.00 91 1016.4
20260906094917 13 340 0.0 0.0 0.00 0.00 0.00 91 1016.4
20260906094759 13 341 0.0 0.0 0.00 0.00 0.00 91 1016.4
20260906094722 13 355 0.0 0.0 0.00 0.00 0.00 91 1016.4
20260906094643 13 360 0.0 0.0 0.00 0.00 0.00 91 1016.4
20260906094515 13 347 0.0 0.0 0.00 0.00 0.00 91 1016.4
20260906094433 13 349 0.0 0.0 0.00 0.00 0.00 91 1016.4
20260906094244 13 351 0.0 0.0 0.00 0.00 0.00 91 1016.4
20260906094158 13 355 0.0 0.0 0.00 0.00 0.00 91 1016.4
20260906094007 13 350 0.0 0.0 0.00 0.00 0.00 91 1016.3
20260906093930 13 337 0.0 0.0 0.00 0.00 0.00 91 1016.3
20260906093733 13 330 0.0 0.0 0.00 0.00 0.00 91 1016.2
20260906093654 13 12 0.0 0.0 0.00 0.00 0.00 91 1016.2
20260906093558 13 355 0.0 0.0 0.00 0.00 0.00 91 1016.3
20260906093440 13 12 0.0 0.0 0.00 0.00 0.00 91 1016.2
20260906093341 13 336 0.0 0.0 0.00 0.00 0.00 91 1016.2
20260906093307 13 306 0.0 0.0 0.00 0.00 0.00 91 1016.2
20260906093117 13 323 0.0 0.0 0.00 0.00 0.00 91 1016.2
20260906093038 13 355 0.0 0.0 0.00 0.00 0.00 91 1016.2
20260906092843 13 340 0.0 0.0 0.00 0.00 0.00 91 1016.2
20260906092806 13 323 0.0 0.0 0.00 0.00 0.00 91 1016.2
20260906092707 13 355 0.0 0.0 0.00 0.00 0.00 92 1016.1
20260906092630 13 343 0.0 0.0 0.00 0.00 0.00 92 1016.1
20260906092459 13 344 0.0 0.0 0.00 0.00 0.00 91 1016.1
20260906092415 13 332 0.0 0.0 0.00 0.00 0.00 91 1016.1
20260906092225 13 15 0.0 0.0 0.00 0.00 0.00 91 1016.1
20260906092140 13 331 0.0 0.0 0.00 0.00 0.00 91 1016.1
20260906092015 13 316 0.0 0.0 0.00 0.00 0.00 91 1016.1
20260906091935 13 328 0.0 0.0 0.00 0.00 0.00 91 1016.1
20260906091807 13 323 0.0 0.0 0.00 0.00 0.00 91 1016.0
20260906091722 13 360 0.0 0.0 0.00 0.00 0.00 92 1016.0
20260906091532 13 324 0.0 0.0 0.00 0.00 0.00 92 1016.0
20260906091448 13 318 0.0 0.0 0.00 0.00 0.00 91 1016.0
20260906091327 13 323 0.0 0.0 0.00 0.00 0.00 91 1016.0
20260906091227 13 5 0.0 0.0 0.00 0.00 0.00 91 1016.0
20260906091109 13 342 0.0 0.0 0.00 0.00 0.00 91 1016.0
20260906091030 13 319 0.0 0.0 0.00 0.00 0.00 91 1016.0
20260906090858 13 318 0.0 0.0 0.00 0.00 0.00 91 1016.0
20260906090752 13 324 0.0 0.0 0.00 0.00 0.00 91 1016.0
20260906090624 13 313 0.0 0.0 0.00 0.00 0.00 91 1016.0
20260906090524 13 332 0.0 0.0 0.00 0.00 0.00 91 1016.0
20260906090354 13 335 0.0 0.0 0.00 0.00 0.00 91 1016.0
20260906090247 13 355 0.0 0.0 0.00 0.00 0.00 91 1015.9
20260906090117 13 340 0.0 0.0 0.00 0.00 0.00 91 1015.9
20260906090038 13 350 0.0 0.0 0.00 0.00 0.00 91 1015.9
20260906085842 13 350 0.0 0.0 0.00 0.00 0.00 91 1015.9
20260906085743 13 348 0.0 0.0 0.00 0.00 0.00 91 1015.9
20260906085628 13 9 0.0 0.0 0.00 0.00 0.00 91 1015.9
20260906085522 13 355 0.0 0.0 0.00 0.00 0.00 91 1015.9
20260906085429 13 355 0.0 0.0 0.00 0.00 0.00 91 1015.8
20260906085344 13 330 0.0 0.0 0.00 0.00 0.00 91 1015.8
20260906085213 13 350 0.0 0.0 0.00 0.00 0.00 91 1015.9
20260906085134 13 336 0.0 0.0 0.00 0.00 0.00 91 1015.9
20260906085006 13 336 0.0 0.0 0.00 0.00 0.00 91 1015.8
20260906084839 13 5 0.0 0.0 0.00 0.00 0.00 91 1015.8
20260906084727 13 43 0.0 0.0 0.00 0.00 0.00 91 1015.8
20260906084648 13 355 0.0 0.0 0.00 0.00 0.00 91 1015.8
20260906084432 13 344 0.0 0.0 0.00 0.00 0.00 91 1015.8
20260906084336 13 355 0.0 0.0 0.00 0.00 0.00 91 1015.7
20260906084239 13 11 0.0 0.0 0.00 0.00 0.00 91 1015.8
20260906084158 13 22 0.0 0.0 0.00 0.00 0.00 91 1015.8
20260906084059 13 338 0.0 0.0 0.00 0.00 0.00 91 1015.8
20260906084003 13 338 0.0 0.0 0.00 0.00 0.00 91 1015.8
20260906083924 13 360 0.0 0.0 0.00 0.00 0.00 91 1015.8
20260906083726 13 355 0.0 0.0 0.00 0.00 0.00 91 1015.8
20260906083628 13 337 0.0 0.0 0.00 0.00 0.00 91 1015.8
20260906083533 13 355 0.0 0.0 0.00 0.00 0.00 91 1015.8
20260906083454 13 360 0.0 0.0 0.00 0.00 0.00 91 1015.8
20260906083358 13 355 0.0 0.0 0.00 0.00 0.00 91 1015.8
20260906083301 13 333 0.0 0.0 0.00 0.00 0.00 91 1015.8
20260906083224 13 355 0.0 0.0 0.00 0.00 0.00 91 1015.8
20260906083026 13 360 0.0 0.0 0.00 0.00 0.00 91 1015.8
20260906082927 13 35 0.0 0.0 0.00 0.00 0.00 91 1015.8
20260906082832 13 23 0.0 0.0 0.00 0.00 0.00 91 1015.8
20260906082734 13 351 0.0 0.0 0.00 0.00 0.00 91 1015.8
20260906082658 13 355 0.0 0.0 0.00 0.00 0.00 91 1015.8
20260906082525 13 19 0.0 0.0 0.00 0.00 0.00 91 1015.7
20260906082422 13 5 0.0 0.0 0.00 0.00 0.00 91 1015.8
20260906082354 13 343 0.0 0.0 0.00 0.00 0.00 91 1015.7
20260906082308 13 5 0.0 0.0 0.00 0.00 0.00 91 1015.7
20260906082209 13 5 0.0 0.0 0.00 0.00 0.00 91 1015.7
20260906082111 13 337 0.0 0.0 0.00 0.00 0.00 91 1015.7
20260906082016 13 36 0.0 0.0 0.00 0.00 0.00 91 1015.8
20260906081916 13 348 0.0 0.0 0.00 0.00 0.00 91 1015.7
20260906081746 13 11 0.0 0.0 0.00 0.00 0.00 91 1015.8
20260906081700 13 33 0.0 0.0 0.00 0.00 0.00 91 1015.7
20260906081530 13 328 0.0 0.0 0.00 0.00 0.00 91 1015.6
20260906081430 13 350 0.0 0.0 0.00 0.00 0.00 91 1015.6
20260906081304 13 350 0.0 0.0 0.00 0.00 0.00 91 1015.6
20260906081217 13 360 0.0 0.0 0.00 0.00 0.00 91 1015.6
20260906081056 13 325 0.0 0.0 0.00 0.00 0.00 91 1015.6
20260906081020 13 319 0.0 0.0 0.00 0.00 0.00 91 1015.6
20260906080933 13 5 0.0 0.0 0.00 0.00 0.00 91 1015.7
20260906080802 13 10 0.0 0.0 0.00 0.00 0.00 91 1015.7
20260906080724 13 5 0.0 0.0 0.00 0.00 0.00 91 1015.7
20260906080528 13 333 0.0 0.0 0.00 0.00 0.00 91 1015.6
20260906080451 13 349 0.0 0.0 0.00 0.00 0.00 91 1015.6
20260906080317 13 355 0.0 0.0 0.00 0.00 0.00 91 1015.6
20260906080245 13 350 0.0 0.0 0.00 0.00 0.00 91 1015.7
20260906080116 13 360 0.0 0.0 0.00 0.00 0.00 91 1015.6
20260906080017 13 360 0.0 0.0 0.00 0.00 0.00 91 1015.6
20260906075838 13 340 0.0 0.0 0.00 0.00 0.00 91 1015.6
20260906075740 13 350 0.0 0.0 0.00 0.00 0.00 91 1015.6
20260906075625 14 334 0.0 0.0 0.00 0.00 0.00 91 1015.6
20260906075547 14 341 0.0 0.0 0.00 0.00 0.00 91 1015.6
20260906075510 14 355 0.0 0.0 0.00 0.00 0.00 91 1015.5
20260906075354 14 351 0.0 0.0 0.00 0.00 0.00 91 1015.5
20260906075314 14 348 0.0 0.0 0.00 0.00 0.00 91 1015.5
20260906075145 14 343 0.0 0.0 0.00 0.00 0.00 91 1015.6
20260906075104 14 341 0.0 0.0 0.00 0.00 0.00 91 1015.5
20260906074924 14 360 0.0 0.0 0.00 0.00 0.00 91 1015.6
20260906074839 14 329 0.0 0.0 0.00 0.00 0.00 91 1015.5
20260906074707 14 355 0.0 0.0 0.00 0.00 0.00 91 1015.5
20260906074630 14 360 0.0 0.0 0.00 0.00 0.00 91 1015.5
20260906074452 14 355 0.0 0.0 0.00 0.00 0.00 91 1015.5
20260906074415 14 347 0.0 0.0 0.00 0.00 0.00 91 1015.5
20260906074154 14 340 0.0 0.0 0.00 0.00 0.00 91 1015.5
20260906074117 14 344 0.0 0.0 0.00 0.00 0.00 91 1015.5
20260906073940 14 325 0.0 0.0 0.00 0.00 0.00 91 1015.5
20260906073840 14 5 0.0 0.0 0.00 0.00 0.00 91 1015.5
20260906073747 14 347 0.0 0.0 0.00 0.00 0.00 91 1015.5
20260906073646 14 355 0.0 0.0 0.00 0.00 0.00 91 1015.4
20260906073518 14 325 0.0 0.0 0.00 0.00 0.00 91 1015.4
20260906073432 14 360 0.0 0.0 0.00 0.00 0.00 91 1015.4
20260906073250 14 355 0.0 0.0 0.00 0.00 0.00 92 1015.4
20260906073100 14 333 0.0 0.0 0.00 0.00 0.00 92 1015.4
20260906073014 14 333 0.0 0.0 0.00 0.00 0.00 92 1015.4
20260906072826 14 350 0.0 0.0 0.00 0.00 0.00 92 1015.4
20260906072740 14 350 0.0 0.0 0.00 0.00 0.00 92 1015.4
20260906072611 14 355 0.0 0.0 0.00 0.00 0.00 92 1015.4
20260906072511 14 360 0.0 0.0 0.00 0.00 0.00 92 1015.4
20260906072411 14 360 0.0 0.0 0.00 0.00 0.00 92 1015.4
20260906072320 14 360 0.0 0.0 0.00 0.00 0.00 92 1015.4
20260906072241 14 360 0.0 0.0 0.00 0.00 0.00 92 1015.4
20260906072113 14 360 0.0 0.0 0.00 0.00 0.00 92 1015.4
20260906072027 14 360 0.0 0.0 0.00 0.00 0.00 92 1015.4
20260906071857 14 18 0.0 0.0 0.00 0.00 0.00 92 1015.3
20260906071820 14 10 0.0 0.0 0.00 0.00 0.00 92 1015.3
20260906071623 14 355 0.0 0.0 0.00 0.00 0.00 92 1015.3
20260906071545 14 355 0.0 0.0 0.00 0.00 0.00 92 1015.3
20260906071430 14 336 0.0 0.0 0.00 0.00 0.00 91 1015.3
20260906071353 14 350 0.0 0.0 0.00 0.00 0.00 91 1015.3
20260906071254 14 350 0.0 0.0 0.00 0.00 0.00 91 1015.3
20260906071123 14 360 0.0 0.0 0.00 0.00 0.00 91 1015.2
20260906071026 14 351 0.0 0.0 0.00 0.00 0.00 91 1015.2
20260906070947 14 351 0.0 0.0 0.00 0.00 0.00 91 1015.3
20260906070841 14 11 0.0 0.0 0.00 0.00 0.00 91 1015.3
20260906070724 14 355 0.0 0.0 0.00 0.00 0.00 91 1015.2
20260906070645 14 338 0.0 0.0 0.00 0.00 0.00 91 1015.2
20260906070428 14 347 0.0 0.0 0.00 0.00 0.00 91 1015.3
20260906070333 14 329 0.0 0.0 0.00 0.00 0.00 91 1015.3
20260906070227 14 327 0.0 0.0 0.00 0.00 0.00 91 1015.3
20260906070148 14 340 0.0 0.0 0.00 0.00 0.00 91 1015.3
20260906070043 14 346 0.0 0.0 0.00 0.00 0.00 91 1015.2
20260906070004 14 9 0.0 0.0 0.00 0.00 0.00 90 1015.2
20260906065825 14 344 0.0 0.0 0.00 0.00 0.00 90 1015.2
20260906065747 14 335 0.0 0.0 0.00 0.00 0.00 90 1015.2
20260906065616 14 340 0.0 0.0 0.00 0.00 0.00 90 1015.2
20260906065531 14 340 0.0 0.0 0.00 0.00 0.00 90 1015.2
20260906065401 14 344 0.0 0.0 0.00 0.00 0.00 90 1015.2
20260906065326 14 347 0.0 0.0 0.00 0.00 0.00 90 1015.2
20260906065131 14 5 0.0 0.0 0.00 0.00 0.00 90 1015.2
20260906065032 14 360 0.0 0.0 0.00 0.00 0.00 90 1015.2
20260906064935 14 355 0.0 0.0 0.00 0.00 0.00 90 1015.1
20260906064855 14 355 0.0 0.0 0.00 0.00 0.00 90 1015.1
20260906064756 15 355 0.0 0.0 0.00 0.00 0.00 90 1015.1
20260906064700 15 351 0.0 0.0 0.00 0.00 0.00 90 1015.1
20260906064541 14 5 0.0 0.0 0.00 0.00 0.00 90 1015.1
20260906064444 15 20 0.0 0.0 0.00 0.00 0.00 90 1015.2
20260906064344 15 355 0.0 0.0 0.00 0.00 0.00 90 1015.1
20260906064128 15 355 0.0 0.0 0.00 0.00 0.00 90 1015.2
20260906064020 15 355 0.0 0.0 0.00 0.00 0.00 90 1015.2
20260906063832 15 344 0.0 0.0 0.00 0.00 0.00 90 1015.2
20260906063746 15 355 0.0 0.0 0.00 0.00 0.00 90 1015.2
20260906063555 15 17 0.0 0.0 0.00 0.00 0.00 90 1015.1
20260906063516 15 332 0.0 0.0 0.00 0.00 0.00 91 1015.2
20260906063348 15 26 0.0 0.0 0.00 0.00 0.00 91 1015.2
20260906063240 15 26 0.0 0.0 0.00 0.00 0.00 91 1015.1
20260906063124 15 26 0.0 0.0 0.00 0.00 0.00 91 1015.1
20260906063045 15 26 0.0 0.0 0.00 0.00 0.00 91 1015.1
20260906062832 15 26 0.0 0.0 0.00 0.00 0.00 91 1015.1
20260906062734 15 26 0.0 0.0 0.00 0.00 0.00 91 1015.1
20260906062638 15 26 0.0 0.0 0.00 0.00 0.00 91 1015.1
20260906062601 15 26 0.0 0.0 0.00 0.00 0.00 91 1015.1
20260906062522 15 26 0.0 0.0 0.00 0.00 0.00 91 1015.1
20260906062404 15 26 0.0 0.0 0.00 0.00 0.00 91 1015.0
20260906062325 15 26 0.0 0.0 0.00 0.00 0.00 91 1015.0
20260906062130 15 5 0.0 0.0 0.00 0.00 0.00 91 1015.0
20260906062032 15 5 0.0 0.0 0.00 0.00 0.00 91 1015.0
20260906061939 15 5 0.0 0.0 0.00 0.00 0.00 91 1015.0
20260906061900 15 5 0.0 0.0 0.00 0.00 0.00 91 1015.0
20260906061718 15 355 0.0 0.0 0.00 0.00 0.00 91 1015.0
20260906061529 15 360 0.0 0.0 0.00 0.00 0.00 91 1015.0
20260906061423 15 360 0.0 0.0 0.00 0.00 0.00 91 1015.0
20260906061234 15 360 0.0 0.0 0.00 0.00 0.00 91 1015.0
20260906061149 15 360 0.0 0.0 0.00 0.00 0.00 91 1015.0
20260906060938 15 26 0.0 0.0 0.00 0.00 0.00 91 1015.0
20260906060835 15 23 0.0 0.0 0.00 0.00 0.00 91 1015.0
20260906060724 15 17 0.0 0.0 0.00 0.00 0.00 91 1014.9
20260906060645 15 17 0.0 0.0 0.00 0.00 0.00 91 1014.9
20260906060516 15 348 0.0 0.0 0.00 0.00 0.00 91 1014.9
20260906060430 15 348 0.0 0.0 0.00 0.00 0.00 91 1014.9
20260906060301 15 348 0.0 0.0 0.00 0.00 0.00 91 1015.0
20260906060223 15 348 0.0 0.0 0.00 0.00 0.00 91 1015.0
20260906060025 15 327 0.0 0.0 0.00 0.00 0.00 92 1015.0
20260906055929 15 32 0.0 0.0 0.00 0.00 0.00 92 1015.0
20260906055831 15 32 0.0 0.0 0.00 0.00 0.00 92 1015.0
20260906055731 15 32 0.0 0.0 0.00 0.00 0.00 92 1015.0
20260906055601 15 42 0.0 0.0 0.00 0.00 0.00 92 1015.0
20260906055521 15 42 0.0 0.0 0.00 0.00 0.00 92 1015.0
20260906055350 15 360 0.0 0.0 0.00 0.00 0.00 92 1015.0
20260906055311 15 360 0.0 0.0 0.00 0.00 0.00 92 1015.0
20260906055155 15 336 0.0 0.0 0.00 0.00 0.00 92 1014.9
20260906055117 15 48 0.0 0.0 0.00 0.00 0.00 92 1015.0
20260906054946 15 48 0.0 0.0 0.00 0.00 0.00 92 1015.0
20260906054902 15 48 0.0 0.0 0.00 0.00 0.00 92 1014.9
20260906054709 15 29 0.0 0.0 0.00 0.00 0.00 92 1014.9
20260906054630 15 29 0.0 0.0 0.00 0.00 0.00 92 1014.9
20260906054434 15 29 0.0 0.0 0.00 0.00 0.00 92 1014.9
20260906054356 15 29 0.0 0.0 0.00 0.00 0.00 92 1014.9
20260906054244 15 29 0.0 0.0 0.00 0.00 0.00 93 1014.9
20260906054205 15 29 0.0 0.0 0.00 0.00 0.00 93 1014.9
20260906054105 15 5 0.0 0.0 0.00 0.00 0.00 93 1014.9
20260906054009 15 5 0.0 0.0 0.00 0.00 0.00 93 1014.9
20260906053930 15 5 0.0 0.0 0.00 0.00 0.00 93 1014.9
20260906053738 15 355 0.0 0.0 0.00 0.00 0.00 93 1014.8
20260906053621 15 355 0.0 0.0 0.00 0.00 0.00 93 1014.8
20260906053543 15 355 0.0 0.0 0.00 0.00 0.00 93 1014.9
20260906053413 15 355 0.0 0.0 0.00 0.00 0.00 93 1014.9
20260906053306 15 355 0.0 0.0 0.00 0.00 0.00 93 1014.8
20260906053136 15 350 0.0 0.0 0.00 0.00 0.00 93 1014.8
20260906053034 15 15 0.0 0.0 0.00 0.00 0.00 93 1014.8
20260906052903 15 339 0.0 0.0 0.00 0.00 0.00 93 1014.8
20260906052828 15 339 0.0 0.0 0.00 0.00 0.00 94 1014.8
20260906052640 15 339 0.0 0.0 0.00 0.00 0.00 93 1014.8
20260906052535 15 339 0.0 0.0 0.00 0.00 0.00 94 1014.8
20260906052458 15 339 0.0 0.0 0.00 0.00 0.00 93 1014.8
20260906052323 15 339 0.0 0.0 0.00 0.00 0.00 93 1014.9
20260906052239 15 339 0.0 0.0 0.00 0.00 0.00 93 1014.9
20260906052108 15 338 0.0 0.0 0.00 0.00 0.00 93 1014.9
20260906052029 15 338 0.0 0.0 0.00 0.00 0.00 93 1014.9
20260906051835 15 338 0.0 0.0 0.00 0.00 0.00 93 1014.8
20260906051756 15 338 0.0 0.0 0.00 0.00 0.00 93 1014.8
20260906051700 15 338 0.0 0.0 0.00 0.00 0.00 93 1014.8
20260906051621 15 338 0.0 0.0 0.00 0.00 0.00 93 1014.8
20260906051452 15 338 0.0 0.0 0.00 0.00 0.00 93 1014.8
20260906051418 15 338 0.0 0.0 0.00 0.00 0.00 93 1014.8
20260906051228 15 328 0.0 0.0 0.00 0.00 0.00 93 1014.7
20260906051142 15 327 0.0 0.0 0.00 0.00 0.00 93 1014.8
20260906051013 15 328 0.0 0.0 0.00 0.00 0.00 93 1014.7
20260906050935 15 328 0.0 0.0 0.00 0.00 0.00 93 1014.7
20260906050805 15 328 0.0 0.0 0.00 0.00 0.00 93 1014.8
20260906050718 15 328 0.0 0.0 0.00 0.00 0.00 93 1014.7
20260906050534 15 328 0.0 0.0 0.00 0.00 0.00 93 1014.7
20260906050449 15 328 0.0 0.0 0.00 0.00 0.00 93 1014.8
20260906050348 15 328 0.0 0.0 0.00 0.00 0.00 93 1014.7
20260906050311 15 328 0.0 0.0 0.00 0.00 0.00 92 1014.7
20260906050226 15 328 0.0 0.0 0.00 0.00 0.00 92 1014.7
20260906050035 15 328 0.0 0.0 0.00 0.00 0.00 93 1014.7
20260906045951 15 328 0.0 0.0 0.00 0.00 0.00 93 1014.6
20260906045821 15 328 0.0 0.0 0.00 0.00 0.00 93 1014.6
20260906045721 15 328 0.0 0.0 0.00 0.00 0.00 93 1014.6
20260906045525 15 328 0.0 0.0 0.00 0.00 0.00 92 1014.6
20260906045432 15 328 0.0 0.0 0.00 0.00 0.00 92 1014.6
20260906045335 15 328 0.0 0.0 0.00 0.00 0.00 93 1014.6
20260906045235 15 328 0.0 0.0 0.00 0.00 0.00 93 1014.6
20260906045118 15 328 0.0 0.0 0.00 0.00 0.00 93 1014.6
20260906045031 15 327 0.0 0.0 0.00 0.00 0.00 93 1014.6
20260906044842 15 328 0.0 0.0 0.00 0.00 0.00 93 1014.5
20260906044757 15 328 0.0 0.0 0.00 0.00 0.00 93 1014.5
20260906044638 15 328 0.0 0.0 0.00 0.00 0.00 93 1014.5
20260906044551 15 328 0.0 0.0 0.00 0.00 0.00 93 1014.5
20260906044433 15 328 0.0 0.0 0.00 0.00 0.00 93 1014.5
20260906044336 15 328 0.0 0.0 0.00 0.00 0.00 93 1014.5
20260906044147 15 328 0.0 0.0 0.00 0.00 0.00 93 1014.5
20260906044040 15 327 0.0 0.0 0.00 0.00 0.00 93 1014.5
20260906043925 15 327 0.0 0.0 0.00 0.00 0.00 93 1014.5
20260906043848 15 328 0.0 0.0 0.00 0.00 0.00 93 1014.4
20260906043718 15 328 0.0 0.0 0.00 0.00 0.00 93 1014.5
20260906043632 15 327 0.0 0.0 0.00 0.00 0.00 93 1014.5
20260906043443 15 327 0.0 0.0 0.00 0.00 0.00 93 1014.5
20260906043337 15 328 0.0 0.0 0.00 0.00 0.00 93 1014.4
20260906043225 15 328 0.0 0.0 0.00 0.00 0.00 93 1014.4
20260906043146 15 327 0.0 0.0 0.00 0.00 0.00 93 1014.4
20260906043057 15 327 0.0 0.0 0.00 0.00 0.00 93 1014.4
20260906043011 15 325 0.0 0.0 0.00 0.00 0.00 93 1014.4
20260906042931 15 322 0.0 0.0 0.00 0.00 0.00 93 1014.4
20260906042803 16 322 0.0 0.0 0.00 0.00 0.00 93 1014.4
20260906042717 16 322 0.0 0.0 0.00 0.00 0.00 93 1014.4
20260906042547 16 322 0.0 0.0 0.00 0.00 0.00 93 1014.4
20260906042509 16 322 0.0 0.0 0.00 0.00 0.00 93 1014.4
20260906042311 16 322 0.0 0.0 0.00 0.00 0.00 93 1014.4
20260906042232 16 322 0.0 0.0 0.00 0.00 0.00 93 1014.4
20260906042048 16 322 0.0 0.0 0.00 0.00 0.00 93 1014.4
20260906041942 16 322 0.0 0.0 0.00 0.00 0.00 93 1014.4
20260906041826 16 322 0.0 0.0 0.00 0.00 0.00 93 1014.4
20260906041747 16 322 0.0 0.0 0.00 0.00 0.00 93 1014.4
20260906041709 16 322 0.0 0.0 0.00 0.00 0.00 93 1014.3
20260906041612 16 322 0.0 0.0 0.00 0.00 0.00 93 1014.3
20260906041534 16 322 0.0 0.0 0.00 0.00 0.00 93 1014.3
20260906041405 16 322 0.0 0.0 0.00 0.00 0.00 93 1014.3
20260906041319 16 322 0.0 0.0 0.00 0.00 0.00 93 1014.3
20260906041130 16 322 0.0 0.0 0.00 0.00 0.00 93 1014.4
20260906041049 16 322 0.0 1.6 0.00 0.00 0.00 93 1014.4
20260906040919 16 322 0.0 3.2 0.00 0.00 0.00 93 1014.3
20260906040819 16 322 0.0 3.2 0.00 0.00 0.00 93 1014.3
20260906040649 16 322 0.0 3.2 0.00 0.00 0.00 93 1014.2
20260906040524 16 322 0.0 3.2 0.00 0.00 0.00 93 1014.2
20260906040428 16 322 0.0 3.2 0.00 0.00 0.00 93 1014.2
20260906040349 16 322 0.0 3.2 0.00 0.00 0.00 93 1014.2
20260906040249 16 207 0.0 3.2 0.00 0.00 0.00 93 1014.2
20260906040154 16 207 0.0 3.2 0.00 0.00 0.00 93 1014.1
20260906040115 16 240 0.0 3.2 0.00 0.00 0.00 93 1014.1
20260906035923 16 240 1.6 3.2 0.00 0.00 0.00 93 1014.1
20260906035841 16 286 1.6 3.2 0.00 0.00 0.00 93 1014.1
20260906035710 16 340 0.0 4.8 0.00 0.00 0.00 93 1014.1
20260906035631 16 340 0.0 4.8 0.00 0.00 0.00 93 1014.1
20260906035437 16 340 0.0 4.8 0.00 0.00 0.00 94 1014.2
20260906035341 16 340 0.0 4.8 0.00 0.00 0.00 94 1014.2
20260906035222 16 340 1.6 4.8 0.00 0.00 0.00 93 1014.3
20260906035146 16 340 1.6 4.8 0.00 0.00 0.00 93 1014.3
20260906035017 16 340 1.6 4.8 0.00 0.00 0.00 93 1014.4
20260906034938 16 340 3.2 4.8 0.00 0.00 0.00 93 1014.4
20260906034809 16 340 1.6 4.8 0.00 0.00 0.00 93 1014.4
20260906034728 16 340 1.6 3.2 0.00 0.00 0.00 93 1014.4
20260906034538 16 340 1.6 3.2 0.00 0.00 0.00 93 1014.4
20260906034436 16 340 0.0 3.2 0.00 0.00 0.00 93 1014.4
20260906034331 16 340 0.0 3.2 0.00 0.00 0.00 93 1014.4
20260906034251 16 340 0.0 3.2 0.00 0.00 0.00 93 1014.4
20260906034101 16 340 0.0 3.2 0.00 0.00 0.00 93 1014.3
20260906034016 16 340 0.0 3.2 0.00 0.00 0.00 93 1014.4
20260906033827 16 340 1.6 3.2 0.00 0.00 0.00 93 1014.3
20260906033727 16 340 0.0 1.6 0.00 0.00 0.00 93 1014.3
20260906033649 16 340 0.0 1.6 0.00 0.00 0.00 93 1014.3
20260906033602 16 340 0.0 1.6 0.00 0.00 0.00 93 1014.3
20260906033444 16 340 0.0 1.6 0.00 0.00 0.00 93 1014.3
20260906033327 16 340 0.0 1.6 0.00 0.00 0.00 93 1014.2
20260906033250 16 340 0.0 1.6 0.00 0.00 0.00 93 1014.2
20260906033210 16 340 0.0 1.6 0.00 0.00 0.00 93 1014.2
20260906033052 16 340 0.0 1.6 0.00 0.00 0.00 93 1014.2
20260906033015 16 340 0.0 1.6 0.00 0.00 0.00 93 1014.2
20260906032726 16 340 0.0 1.6 0.00 0.00 0.00 93 1014.2
20260906032631 16 340 0.0 1.6 0.00 0.00 0.00 93 1014.2
20260906032534 16 340 0.0 0.0 0.00 0.00 0.00 93 1014.3
20260906032456 16 340 0.0 0.0 0.00 0.00 0.00 93 1014.3
20260906032419 16 340 0.0 0.0 0.00 0.00 0.00 93 1014.3
20260906032305 16 340 0.0 0.0 0.00 0.00 0.00 93 1014.3
20260906032223 16 340 0.0 0.0 0.00 0.00 0.00 93 1014.3
20260906032052 16 340 0.0 0.0 0.00 0.00 0.00 93 1014.3
20260906032006 16 340 0.0 0.0 0.00 0.00 0.00 93 1014.3
20260906031835 16 340 0.0 0.0 0.00 0.00 0.00 93 1014.3
20260906031734 16 340 0.0 0.0 0.00 0.00 0.00 93 1014.3
20260906031607 16 340 0.0 0.0 0.00 0.00 0.00 93 1014.3
20260906031520 16 340 0.0 0.0 0.00 0.00 0.00 93 1014.3
20260906031355 16 340 0.0 0.0 0.00 0.00 0.00 93 1014.3
20260906031316 16 340 0.0 0.0 0.00 0.00 0.00 93 1014.3
20260906031139 16 340 0.0 0.0 0.00 0.00 0.00 93 1014.3
20260906031040 16 340 0.0 0.0 0.00 0.00 0.00 93 1014.3
20260906030943 16 340 0.0 0.0 0.00 0.00 0.00 93 1014.3
20260906030844 16 340 0.0 0.0 0.00 0.00 0.00 93 1014.3
20260906030654 16 340 0.0 0.0 0.00 0.00 0.00 93 1014.3
20260906030548 16 340 0.0 0.0 0.00 0.00 0.00 93 1014.3
20260906030357 16 340 0.0 0.0 0.00 0.00 0.00 93 1014.3
20260906030319 16 340 0.0 0.0 0.00 0.00 0.00 93 1014.3
20260906030149 16 340 0.0 0.0 0.00 0.00 0.00 93 1014.3
20260906030049 16 340 0.0 0.0 0.00 0.00 0.00 93 1014.3
20260906025924 16 340 0.0 0.0 0.00 0.00 0.00 93 1014.3
20260906025844 16 340 0.0 0.0 0.00 0.00 0.00 93 1014.3
20260906025805 16 340 0.0 0.0 0.00 0.00 0.00 93 1014.3
20260906025706 16 340 0.0 0.0 0.00 0.00 0.00 93 1014.3
20260906025629 16 340 0.0 0.0 0.00 0.00 0.00 93 1014.3
20260906025434 16 340 0.0 0.0 0.00 0.00 0.00 93 1014.4
20260906025334 16 340 0.0 0.0 0.00 0.00 0.00 93 1014.4
20260906025227 16 340 0.0 0.0 0.00 0.00 0.00 93 1014.4
20260906025129 16 340 0.0 0.0 0.00 0.00 0.00 93 1014.4
20260906024937 16 340 0.0 0.0 0.00 0.00 0.00 93 1014.4
20260906024839 16 340 0.0 0.0 0.00 0.00 0.00 93 1014.4
20260906024723 16 340 0.0 0.0 0.00 0.00 0.00 93 1014.4
20260906024646 16 340 0.0 0.0 0.00 0.00 0.00 93 1014.3
20260906024540 16 340 0.0 0.0 0.00 0.00 0.00 93 1014.4
20260906024441 16 340 0.0 0.0 0.00 0.00 0.00 93 1014.4
20260906024312 16 340 0.0 0.0 0.00 0.00 0.00 93 1014.4
20260906024234 16 340 0.0 0.0 0.00 0.00 0.00 93 1014.4
20260906024039 16 340 0.0 0.0 0.00 0.00 0.00 93 1014.3
20260906024003 16 340 0.0 0.0 0.00 0.00 0.00 93 1014.3
20260906023908 16 340 0.0 0.0 0.00 0.00 0.00 93 1014.3
20260906023829 16 340 0.0 0.0 0.00 0.00 0.00 93 1014.3
20260906023633 16 340 0.0 0.0 0.00 0.00 0.00 93 1014.3
20260906023535 16 340 0.0 0.0 0.00 0.00 0.00 93 1014.3
20260906023438 16 340 0.0 0.0 0.00 0.00 0.00 93 1014.3
20260906023400 16 340 0.0 0.0 0.00 0.00 0.00 92 1014.3
20260906023224 16 340 0.0 0.0 0.00 0.00 0.00 92 1014.3
20260906023124 16 340 0.0 0.0 0.00 0.00 0.00 92 1014.4
20260906023051 16 340 0.0 0.0 0.00 0.00 0.00 92 1014.3
20260906022954 16 340 0.0 0.0 0.00 0.00 0.00 92 1014.3
20260906022916 16 340 0.0 0.0 0.00 0.00 0.00 92 1014.3
20260906022745 16 340 0.0 0.0 0.00 0.00 0.00 92 1014.3
20260906022641 16 340 0.0 0.0 0.00 0.00 0.00 92 1014.3
20260906022525 16 340 0.0 0.0 0.00 0.00 0.00 92 1014.3
20260906022446 16 340 0.0 0.0 0.00 0.00 0.00 92 1014.3
20260906022328 16 340 0.0 0.0 0.00 0.00 0.00 92 1014.3
20260906022209 16 340 0.0 0.0 0.00 0.00 0.00 92 1014.3
20260906022131 16 340 0.0 0.0 0.00 0.00 0.00 92 1014.3
20260906022002 16 340 0.0 0.0 0.00 0.00 0.00 92 1014.3
20260906021921 16 340 0.0 0.0 0.00 0.00 0.00 92 1014.3
20260906021728 16 340 0.0 0.0 0.00 0.00 0.00 92 1014.3
20260906021643 16 340 0.0 0.0 0.00 0.00 0.00 92 1014.3
20260906021513 16 340 0.0 0.0 0.00 0.00 0.00 92 1014.3
20260906021433 16 340 0.0 0.0 0.00 0.00 0.00 92 1014.3
20260906021304 16 340 0.0 0.0 0.00 0.00 0.00 92 1014.3
20260906021218 16 340 0.0 0.0 0.00 0.00 0.00 92 1014.3
20260906021040 16 340 0.0 0.0 0.00 0.00 0.00 92 1014.3
20260906020933 16 340 0.0 0.0 0.00 0.00 0.00 92 1014.3
20260906020856 16 340 0.0 0.0 0.00 0.00 0.00 92 1014.3
20260906020805 16 340 0.0 0.0 0.00 0.00 0.00 92 1014.3
20260906020726 16 340 0.0 0.0 0.00 0.00 0.00 92 1014.3
20260906020530 16 340 0.0 0.0 0.00 0.00 0.00 92 1014.3
20260906020431 16 340 0.0 0.0 0.00 0.00 0.00 92 1014.3
20260906020335 16 340 0.0 0.0 0.00 0.00 0.00 92 1014.4
20260906020236 16 340 0.0 0.0 0.00 0.00 0.00 92 1014.4
20260906020106 16 340 0.0 0.0 0.00 0.00 0.00 92 1014.4
20260906015940 16 340 0.0 0.0 0.00 0.00 0.00 92 1014.4
20260906015823 16 340 0.0 1.6 0.00 0.00 0.00 92 1014.4
20260906015750 16 340 0.0 1.6 0.00 0.00 0.00 92 1014.4
20260906015539 16 340 0.0 1.6 0.00 0.00 0.00 92 1014.4
20260906015434 16 340 0.0 1.6 0.00 0.00 0.00 92 1014.4
20260906015357 16 340 0.0 1.6 0.00 0.00 0.00 92 1014.4
20260906015259 16 340 0.0 1.6 0.00 0.00 0.00 92 1014.4
20260906015141 17 340 0.0 1.6 0.00 0.00 0.00 92 1014.4
20260906015043 16 340 0.0 1.6 0.00 0.00 0.00 92 1014.4
20260906015005 16 340 0.0 1.6 0.00 0.00 0.00 92 1014.4
20260906014835 16 338 0.0 1.6 0.00 0.00 0.00 92 1014.3
20260906014728 16 338 0.0 1.6 0.00 0.00 0.00 92 1014.3
20260906014542 17 338 0.0 1.6 0.00 0.00 0.00 92 1014.3
20260906014456 17 338 0.0 1.6 0.00 0.00 0.00 92 1014.3
20260906014251 17 338 0.0 3.2 0.00 0.00 0.00 91 1014.4
20260906014153 17 338 1.6 3.2 0.00 0.00 0.00 91 1014.4
20260906014036 17 338 1.6 3.2 0.00 0.00 0.00 91 1014.4
20260906013959 17 338 0.0 3.2 0.00 0.00 0.00 91 1014.4
20260906013840 17 338 0.0 3.2 0.00 0.00 0.00 91 1014.4
20260906013801 17 338 0.0 3.2 0.00 0.00 0.00 91 1014.4
20260906013625 17 338 1.6 3.2 0.00 0.00 0.00 92 1014.4
20260906013546 17 338 0.0 3.2 0.00 0.00 0.00 92 1014.4
20260906013359 17 338 0.0 1.6 0.00 0.00 0.00 92 1014.4
20260906013321 17 338 0.0 1.6 0.00 0.00 0.00 92 1014.4
20260906013126 17 338 0.0 1.6 0.00 0.00 0.00 92 1014.4
20260906013047 17 333 0.0 3.2 0.00 0.00 0.00 92 1014.5
20260906012952 17 333 0.0 4.8 0.00 0.00 0.00 92 1014.4
20260906012914 17 333 0.0 4.8 0.00 0.00 0.00 92 1014.5
20260906012745 17 333 0.0 4.8 0.00 0.00 0.00 92 1014.5
20260906012642 17 333 0.0 4.8 0.00 0.00 0.00 92 1014.5
20260906012526 16 333 0.0 4.8 0.00 0.00 0.00 92 1014.4
20260906012434 17 329 0.0 4.8 0.00 0.00 0.00 92 1014.4
20260906012354 16 329 0.0 4.8 0.00 0.00 0.00 92 1014.4
20260906012258 17 329 3.2 4.8 0.00 0.00 0.00 92 1014.4
20260906012159 17 329 3.2 4.8 0.00 0.00 0.00 92 1014.4
20260906012028 17 329 4.8 4.8 0.00 0.00 0.00 92 1014.4
20260906011912 17 327 4.8 6.4 0.00 0.00 0.00 92 1014.4
20260906011833 17 327 3.2 6.4 0.00 0.00 0.00 92 1014.4
20260906011637 17 326 3.2 6.4 0.00 0.00 0.00 92 1014.3
20260906011540 17 326 3.2 6.4 0.00 0.00 0.00 92 1014.4
20260906011444 17 326 3.2 6.4 0.00 0.00 0.00 92 1014.4
20260906011404 17 326 3.2 6.4 0.00 0.00 0.00 92 1014.3
20260906011228 17 340 4.8 6.4 0.00 0.00 0.00 91 1014.3
20260906011122 17 340 4.8 6.4 0.00 0.00 0.00 91 1014.3
20260906010952 17 340 3.2 4.8 0.00 0.00 0.00 91 1014.3
20260906010915 17 340 3.2 4.8 0.00 0.00 0.00 91 1014.3
20260906010746 17 340 3.2 4.8 0.00 0.00 0.00 91 1014.3
20260906010702 17 317 3.2 4.8 0.00 0.00 0.00 91 1014.3
20260906010511 17 317 3.2 4.8 0.00 0.00 0.00 91 1014.4
20260906010433 17 315 3.2 4.8 0.00 0.00 0.00 91 1014.4
20260906010235 17 315 3.2 4.8 0.00 0.00 0.00 91 1014.4
20260906010158 17 315 3.2 6.4 0.00 0.00 0.00 91 1014.3
20260906010040 17 315 3.2 6.4 0.00 0.00 0.00 91 1014.4
20260906010005 17 315 3.2 6.4 0.00 0.00 0.00 91 1014.3
20260906005808 17 315 3.2 6.4 0.00 0.00 0.00 91 1014.3
20260906005729 17 315 3.2 6.4 0.00 0.00 0.00 91 1014.3
20260906005559 17 313 3.2 6.4 0.00 0.00 0.00 91 1014.3
20260906005522 17 312 3.2 6.4 0.00 0.00 0.00 91 1014.3
20260906005307 17 321 4.8 6.4 0.00 0.00 0.00 91 1014.3
20260906005229 17 321 3.2 6.4 0.00 0.00 0.00 91 1014.3
20260906005031 17 325 3.2 4.8 0.00 0.00 0.00 91 1014.3
20260906004954 17 337 3.2 4.8 0.00 0.00 0.00 91 1014.2
20260906004858 17 345 3.2 4.8 0.00 0.00 0.00 91 1014.2
20260906004819 17 345 3.2 6.4 0.00 0.00 0.00 91 1014.2
20260906004628 17 345 3.2 6.4 0.00 0.00 0.00 91 1014.2
20260906004531 17 345 3.2 6.4 0.00 0.00 0.00 91 1014.2
20260906004434 17 345 3.2 6.4 0.00 0.00 0.00 91 1014.2
20260906004337 17 340 3.2 6.4 0.00 0.00 0.00 91 1014.2
20260906004259 17 340 3.2 6.4 0.00 0.00 0.00 91 1014.2
20260906004124 17 333 4.8 6.4 0.00 0.00 0.00 91 1014.2
20260906004037 17 343 4.8 6.4 0.00 0.00 0.00 91 1014.2
20260906003944 17 343 4.8 6.4 0.00 0.00 0.00 91 1014.2
20260906003828 17 344 3.2 4.8 0.00 0.00 0.00 91 1014.2
20260906003723 17 342 1.6 4.8 0.00 0.00 0.00 91 1014.2
20260906003626 17 342 1.6 4.8 0.00 0.00 0.00 91 1014.2
20260906003551 17 331 1.6 4.8 0.00 0.00 0.00 91 1014.2
20260906003433 17 346 1.6 4.8 0.00 0.00 0.00 91 1014.2
20260906003337 17 345 0.0 6.4 0.00 0.00 0.00 91 1014.1
20260906003300 17 345 0.0 6.4 0.00 0.00 0.00 91 1014.2
20260906003127 17 345 1.6 6.4 0.00 0.00 0.00 91 1014.2
20260906003048 17 341 1.6 6.4 0.00 0.00 0.00 91 1014.1
20260906002917 17 341 1.6 6.4 0.00 0.00 0.00 91 1014.2
20260906002832 17 341 1.6 6.4 0.00 0.00 0.00 91 1014.2
20260906002704 17 341 3.2 6.4 0.00 0.00 0.00 91 1014.1
20260906002624 17 341 3.2 6.4 0.00 0.00 0.00 91 1014.1
20260906002434 17 333 3.2 6.4 0.00 0.00 0.00 91 1014.2
20260906002328 17 338 4.8 6.4 0.00 0.00 0.00 91 1014.2
20260906002250 17 338 4.8 6.4 0.00 0.00 0.00 91 1014.2
20260906002154 17 337 4.8 6.4 0.00 0.00 0.00 91 1014.1
20260906002035 17 338 4.8 6.4 0.00 0.00 0.00 91 1014.1
20260906001923 17 338 3.2 4.8 0.00 0.00 0.00 91 1014.1
20260906001846 17 347 3.2 4.8 0.00 0.00 0.00 91 1014.1
20260906001537 17 336 3.2 4.8 0.00 0.00 0.00 91 1014.1
20260906001433 17 336 3.2 4.8 0.00 0.00 0.00 91 1014.1
20260906001333 17 336 3.2 4.8 0.00 0.00 0.00 91 1014.1
20260906001247 17 336 3.2 4.8 0.00 0.00 0.00 91 1014.1
20260906001117 17 336 3.2 4.8 0.00 0.00 0.00 91 1014.0
20260906001038 17 336 3.2 4.8 0.00 0.00 0.00 91 1014.0
20260906000902 17 342 3.2 6.4 0.00 0.00 0.00 91 1014.0
20260906000828 17 342 3.2 6.4 0.00 0.00 0.00 91 1014.0
20260906000658 17 318 3.2 6.4 0.00 0.00 0.00 91 1013.9
20260906000620 17 344 3.2 6.4 0.00 0.00 0.00 91 1013.8
20260906000425 17 355 1.6 6.4 0.00 0.00 0.00 90 1013.8
20260906000348 17 355 1.6 6.4 0.00 0.00 0.00 90 1013.8
20260906000230 17 355 3.2 8.0 0.00 0.00 0.00 90 1013.8
20260906000152 17 347 3.2 8.0 0.00 0.00 0.00 90 1013.8
20260906000035 17 355 3.2 8.0 0.00 0.00 0.00 90 1013.8
20260905235829 17 351 1.6 8.0 0.00 0.00 0.00 90 1013.8
20260905235754 17 355 3.2 8.0 0.00 0.00 0.00 90 1013.8
20260905235625 17 336 4.8 8.0 0.00 0.00 0.00 90 1013.8
20260905235518 17 340 4.8 8.0 0.00 0.00 0.00 90 1013.8
20260905235348 17 344 1.6 6.4 0.00 0.00 0.00 90 1013.8
20260905235248 17 344 1.6 6.4 0.00 0.00 0.00 90 1013.8
20260905235210 17 344 1.6 8.0 0.00 0.00 0.00 90 1013.8
20260905235113 17 344 3.2 8.0 0.00 0.00 0.00 90 1013.8
20260905235036 17 344 3.2 8.0 0.00 0.00 0.00 90 1013.8
20260905234905 17 340 3.2 8.0 0.00 0.00 0.00 90 1013.8
20260905234739 17 19 3.2 8.0 0.00 0.00 0.00 90 1013.7
20260905234623 17 349 3.2 8.0 0.00 0.00 0.00 90 1013.7
20260905234550 17 331 4.8 8.0 0.00 0.00 0.00 90 1013.8
20260905234451 17 331 4.8 8.0 0.00 0.00 0.00 90 1013.7
20260905234333 17 331 4.8 8.0 0.00 0.00 0.00 90 1013.7
20260905234254 17 333 4.8 8.0 0.00 0.00 0.00 90 1013.7
20260905234137 17 323 4.8 6.4 0.00 0.00 0.00 90 1013.7
20260905234039 17 321 4.8 6.4 0.00 0.00 0.00 90 1013.8
20260905234001 17 321 4.8 6.4 0.00 0.00 0.00 90 1013.7
20260905233840 17 321 4.8 6.4 0.00 0.00 0.00 90 1013.7
20260905233812 17 318 4.8 6.4 0.00 0.00 0.00 90 1013.7
20260905233638 17 320 3.2 6.4 0.00 0.00 0.00 89 1013.7
20260905233559 17 332 3.2 6.4 0.00 0.00 0.00 89 1013.7
20260905233344 17 345 3.2 6.4 0.00 0.00 0.00 89 1013.6
20260905233306 17 328 3.2 6.4 0.00 0.00 0.00 89 1013.6
20260905233212 17 334 3.2 6.4 0.00 0.00 0.00 89 1013.6
20260905233131 17 334 3.2 6.4 0.00 0.00 0.00 89 1013.6
20260905233003 18 337 4.8 6.4 0.00 0.00 0.00 88 1013.5
20260905232915 18 340 4.8 6.4 0.00 0.00 0.00 88 1013.6
20260905232745 18 334 4.8 6.4 0.00 0.00 0.00 88 1013.5
20260905232707 18 324 3.2 6.4 0.00 0.00 0.00 88 1013.5
20260905232517 18 355 3.2 6.4 0.00 0.00 0.00 88 1013.5
20260905232432 18 360 3.2 6.4 0.00 0.00 0.00 87 1013.5
20260905232306 18 355 3.2 4.8 0.00 0.00 0.00 87 1013.5
20260905232227 18 350 3.2 4.8 0.00 0.00 0.00 87 1013.5
20260905232032 18 344 0.0 4.8 0.00 0.00 0.00 88 1013.5
20260905231954 18 344 1.6 4.8 0.00 0.00 0.00 88 1013.4
20260905231839 18 344 3.2 4.8 0.00 0.00 0.00 87 1013.4
20260905231801 18 344 3.2 4.8 0.00 0.00 0.00 87 1013.4
20260905231604 18 344 3.2 6.4 0.00 0.00 0.00 87 1013.4
20260905231526 18 344 3.2 8.0 0.00 0.00 0.00 86 1013.4
20260905231337 18 360 1.6 8.0 0.00 0.00 0.00 86 1013.3
20260905231252 18 360 1.6 8.0 0.00 0.00 0.00 86 1013.4
20260905231126 18 360 3.2 8.0 0.00 0.00 0.00 84 1013.3
20260905231027 18 360 3.2 8.0 0.00 0.00 0.00 85 1013.3
20260905230830 18 347 4.8 8.0 0.00 0.00 0.00 84 1013.4
20260905230725 18 326 4.8 8.0 0.00 0.00 0.00 84 1013.4
20260905230648 18 331 3.2 8.0 0.00 0.00 0.00 84 1013.4
20260905230611 18 342 3.2 8.0 0.00 0.00 0.00 84 1013.3
20260905230453 19 19 3.2 8.0 0.00 0.00 0.00 83 1013.3
20260905230333 19 360 3.2 8.0 0.00 0.00 0.00 82 1013.4
20260905230247 19 360 3.2 8.0 0.00 0.00 0.00 82 1013.3
20260905230208 19 26 3.2 8.0 0.00 0.00 0.00 82 1013.3
20260905230112 19 5 3.2 8.0 0.00 0.00 0.00 82 1013.3
20260905225920 19 349 3.2 8.0 0.00 0.00 0.00 82 1013.3
20260905225835 19 355 3.2 8.0 0.00 0.00 0.00 82 1013.3
20260905225705 19 355 3.2 8.0 0.00 0.00 0.00 81 1013.3
20260905225627 19 347 3.2 8.0 0.00 0.00 0.00 81 1013.3
20260905225430 19 334 3.2 8.0 0.00 0.00 0.00 81 1013.3
20260905225353 19 355 3.2 8.0 0.00 0.00 0.00 80 1013.3
20260905225258 19 344 3.2 8.0 0.00 0.00 0.00 81 1013.3
20260905225219 19 355 4.8 8.0 0.00 0.00 0.00 80 1013.3
20260905225049 19 355 6.4 8.0 0.00 0.00 0.00 80 1013.3
20260905224943 19 321 4.8 9.7 0.00 0.00 0.00 80 1013.3
20260905224813 19 360 3.2 9.7 0.00 0.00 0.00 80 1013.3
20260905224738 19 360 3.2 9.7 0.00 0.00 0.00 80 1013.3
20260905224540 20 360 3.2 9.7 0.00 0.00 0.00 80 1013.3
20260905224443 20 5 3.2 9.7 0.00 0.00 0.00 80 1013.4
20260905224345 20 31 3.2 9.7 0.00 0.00 0.00 79 1013.4
20260905224245 20 37 3.2 9.7 0.00 0.00 0.00 79 1013.3
20260905224206 20 17 4.8 9.7 0.00 0.00 0.00 79 1013.3
20260905224110 20 343 4.8 11.3 0.00 0.00 0.00 79 1013.3
20260905224031 20 351 4.8 9.7 0.00 0.00 0.00 79 1013.3
20260905223903 20 344 4.8 12.9 0.00 0.00 0.00 79 1013.3
20260905223818 20 32 3.2 12.9 0.00 0.00 0.00 79 1013.3
20260905223633 20 360 3.2 12.9 0.00 0.00 0.00 79 1013.3
20260905223549 20 360 4.8 14.5 0.00 0.00 0.00 79 1013.2
20260905223418 20 5 4.8 14.5 0.00 0.00 0.00 78 1013.3
20260905223338 20 5 4.8 14.5 0.00 0.00 0.00 78 1013.3
20260905223120 20 5 6.4 14.5 0.00 0.00 0.00 78 1013.2
20260905223054 20 26 3.2 14.5 0.00 0.00 0.00 79 1013.2
20260905222957 20 348 3.2 14.5 0.00 0.00 0.00 78 1013.2
20260905222918 20 348 3.2 14.5 0.00 0.00 0.00 79 1013.2
20260905222723 20 333 6.4 14.5 0.00 0.00 0.00 78 1013.2
20260905222629 20 360 3.2 12.9 0.00 0.00 0.00 79 1013.2
20260905222531 20 355 1.6 12.9 0.00 0.00 0.00 79 1013.1
20260905222453 20 355 3.2 12.9 0.00 0.00 0.00 79 1013.1
20260905222414 20 350 3.2 12.9 0.00 0.00 0.00 79 1013.2
20260905222317 20 343 6.4 12.9 0.00 0.00 0.00 79 1013.1
20260905222237 20 331 8.0 12.9 0.00 0.00 0.00 78 1013.1
20260905222108 20 345 8.0 12.9 0.00 0.00 0.00 79 1013.1
20260905222023 20 337 6.4 12.9 0.00 0.00 0.00 79 1013.1
20260905221834 20 29 4.8 12.9 0.00 0.00 0.00 78 1013.1
20260905221750 20 55 4.8 12.9 0.00 0.00 0.00 79 1013.1
20260905221620 20 325 3.2 8.0 0.00 0.00 0.00 79 1013.0
20260905221543 20 5 3.2 8.0 0.00 0.00 0.00 79 1013.0
20260905221328 20 360 1.6 8.0 0.00 0.00 0.00 79 1013.1
20260905221228 20 360 3.2 8.0 0.00 0.00 0.00 79 1013.1
20260905221133 20 14 4.8 8.0 0.00 0.00 0.00 79 1013.1
20260905221055 20 342 4.8 9.7 0.00 0.00 0.00 79 1013.1
20260905220926 20 350 3.2 9.7 0.00 0.00 0.00 79 1013.1
20260905220818 20 23 3.2 9.7 0.00 0.00 0.00 79 1013.1
20260905220629 20 360 3.2 12.9 0.00 0.00 0.00 79 1013.0
20260905220533 20 350 3.2 12.9 0.00 0.00 0.00 79 1013.1
20260905220455 20 52 4.8 12.9 0.00 0.00 0.00 79 1013.1
20260905220427 20 23 4.8 12.9 0.00 0.00 0.00 78 1013.1
20260905220300 20 32 6.4 14.5 0.00 0.00 0.00 78 1013.1
20260905220215 20 34 4.8 14.5 0.00 0.00 0.00 78 1013.1
20260905220025 20 344 6.4 14.5 0.00 0.00 0.00 78 1013.1
20260905215939 20 5 6.4 14.5 0.00 0.00 0.00 78 1013.1
20260905215810 20 30 3.2 14.5 0.00 0.00 0.00 79 1013.0
20260905215731 20 355 3.2 14.5 0.00 0.00 0.00 79 1013.0
20260905215536 20 330 6.4 14.5 0.00 0.00 0.00 78 1013.0
20260905215458 20 360 4.8 14.5 0.00 0.00 0.00 78 1013.0
20260905215323 20 20 4.8 12.9 0.00 0.00 0.00 78 1012.9
20260905215241 20 20 4.8 12.9 0.00 0.00 0.00 79 1013.0
20260905215111 20 338 4.8 12.9 0.00 0.00 0.00 79 1012.9
20260905215033 20 15 4.8 12.9 0.00 0.00 0.00 78 1012.9
20260905214904 20 348 3.2 9.7 0.00 0.00 0.00 78 1012.9
20260905214819 20 348 4.8 9.7 0.00 0.00 0.00 78 1013.0
20260905214628 20 318 6.4 9.7 0.00 0.00 0.00 78 1012.9
20260905214523 20 336 6.4 9.7 0.00 0.00 0.00 78 1012.9
20260905214446 20 355 6.4 9.7 0.00 0.00 0.00 78 1012.9
20260905214330 20 327 6.4 9.7 0.00 0.00 0.00 78 1012.9
20260905214253 20 309 6.4 9.7 0.00 0.00 0.00 77 1012.9
20260905214212 20 333 4.8 9.7 0.00 0.00 0.00 79 1012.9
20260905214112 20 317 4.8 9.7 0.00 0.00 0.00 78 1012.9
20260905214035 20 329 4.8 12.9 0.00 0.00 0.00 78 1012.9
20260905213837 20 338 4.8 16.1 0.00 0.00 0.00 77 1012.9
20260905213757 20 300 4.8 16.1 0.00 0.00 0.00 78 1012.8
20260905213643 20 321 4.8 16.1 0.00 0.00 0.00 78 1012.8
20260905213605 20 343 6.4 16.1 0.00 0.00 0.00 78 1012.8
20260905213415 20 341 6.4 16.1 0.00 0.00 0.00 77 1012.8
20260905213328 20 350 6.4 16.1 0.00 0.00 0.00 77 1012.8
20260905213159 20 329 11.3 16.1 0.00 0.00 0.00 77 1012.7
20260905213037 20 355 9.7 17.7 0.00 0.00 0.00 77 1012.8
20260905212940 20 13 8.0 17.7 0.00 0.00 0.00 76 1012.7
20260905212856 20 360 8.0 17.7 0.00 0.00 0.00 76 1012.8
20260905212817 20 345 8.0 17.7 0.00 0.00 0.00 76 1012.8
20260905212718 20 348 8.0 17.7 0.00 0.00 0.00 76 1012.7
20260905212632 20 315 8.0 17.7 0.00 0.00 0.00 77 1012.7
20260905212443 20 316 9.7 17.7 0.00 0.00 0.00 76 1012.7
20260905212340 20 338 8.0 17.7 0.00 0.00 0.00 77 1012.7
20260905212224 20 311 6.4 12.9 0.00 0.00 0.00 76 1012.7
20260905212129 20 13 8.0 12.9 0.00 0.00 0.00 77 1012.8
20260905212053 20 346 8.0 14.5 0.00 0.00 0.00 76 1012.8
20260905211958 20 329 8.0 14.5 0.00 0.00 0.00 76 1012.7
20260905211838 20 344 6.4 14.5 0.00 0.00 0.00 76 1012.7
20260905211752 20 319 4.8 17.7 0.00 0.00 0.00 77 1012.7
20260905211654 20 327 6.4 17.7 0.00 0.00 0.00 77 1012.7
20260905211614 20 348 8.0 17.7 0.00 0.00 0.00 76 1012.7
20260905211458 20 344 8.0 17.7 0.00 0.00 0.00 76 1012.6
20260905211338 20 338 8.0 17.7 0.00 0.00 0.00 75 1012.7
20260905211253 20 331 9.7 17.7 0.00 0.00 0.00 75 1012.7
20260905211218 21 323 9.7 17.7 0.00 0.00 0.00 75 1012.6
20260905211023 21 337 11.3 17.7 0.00 0.00 0.00 74 1012.6
20260905210925 21 344 9.7 16.1 0.00 0.00 0.00 75 1012.6
20260905210828 21 345 9.7 16.1 0.00 0.00 0.00 75 1012.6
20260905210748 21 355 9.7 16.1 0.00 0.00 0.00 75 1012.6
20260905210722 21 355 9.7 16.1 0.00 0.00 0.00 74 1012.6
20260905210624 21 350 9.7 16.1 0.00 0.00 0.00 75 1012.6
20260905210525 21 344 9.7 16.1 0.00 0.00 0.00 75 1012.6
20260905210327 21 350 8.0 16.1 0.00 0.00 0.00 75 1012.6
20260905210249 21 348 9.7 16.1 0.00 0.00 0.00 74 1012.6
20260905210031 21 355 11.3 16.1 0.00 0.00 0.00 74 1012.5
20260905205932 21 330 11.3 16.1 0.00 0.00 0.00 74 1012.5
20260905205733 21 5 6.4 14.5 0.00 0.00 0.00 75 1012.5
20260905205656 21 341 6.4 14.5 0.00 0.00 0.00 75 1012.5
20260905205601 21 321 6.4 14.5 0.00 0.00 0.00 75 1012.5
20260905205523 21 338 6.4 14.5 0.00 0.00 0.00 74 1012.5
20260905205327 21 325 6.4 14.5 0.00 0.00 0.00 75 1012.4
20260905205228 21 10 6.4 14.5 0.00 0.00 0.00 75 1012.4
20260905205131 21 324 8.0 14.5 0.00 0.00 0.00 74 1012.4
20260905205036 21 319 8.0 14.5 0.00 0.00 0.00 73 1012.4
20260905204959 21 313 8.0 14.5 0.00 0.00 0.00 73 1012.4
20260905204823 21 332 6.4 14.5 0.00 0.00 0.00 75 1012.4
20260905204738 21 325 6.4 16.1 0.00 0.00 0.00 75 1012.4
20260905204659 21 309 6.4 16.1 0.00 0.00 0.00 74 1012.4
20260905204619 21 333 8.0 16.1 0.00 0.00 0.00 74 1012.4
20260905204534 21 329 8.0 16.1 0.00 0.00 0.00 75 1012.4
20260905204404 21 329 8.0 16.1 0.00 0.00 0.00 74 1012.4
20260905204326 21 325 6.4 16.1 0.00 0.00 0.00 75 1012.4
20260905204132 21 324 6.4 16.1 0.00 0.00 0.00 75 1012.4
20260905204057 21 331 6.4 16.1 0.00 0.00 0.00 76 1012.4
20260905204001 21 327 11.3 16.1 0.00 0.00 0.00 75 1012.4
20260905203840 21 316 9.7 16.1 0.00 0.00 0.00 74 1012.4
20260905203723 21 329 8.0 16.1 0.00 0.00 0.00 74 1012.4
20260905203645 21 325 9.7 16.1 0.00 0.00 0.00 74 1012.4
20260905203517 21 317 9.7 16.1 0.00 0.00 0.00 74 1012.4
20260905203433 21 321 8.0 16.1 0.00 0.00 0.00 76 1012.4
20260905203244 21 344 9.7 14.5 0.00 0.00 0.00 76 1012.4
20260905203138 21 337 11.3 14.5 0.00 0.00 0.00 75 1012.4
20260905203025 21 341 6.4 14.5 0.00 0.00 0.00 74 1012.4
20260905202948 21 311 6.4 12.9 0.00 0.00 0.00 75 1012.4
20260905202817 21 315 6.4 12.9 0.00 0.00 0.00 74 1012.4
20260905202732 21 319 6.4 16.1 0.00 0.00 0.00 75 1012.4
20260905202602 21 313 4.8 16.1 0.00 0.00 0.00 76 1012.4
20260905202524 21 333 4.8 16.1 0.00 0.00 0.00 75 1012.4
20260905202328 21 347 6.4 16.1 0.00 0.00 0.00 75 1012.4
20260905202250 21 329 6.4 17.7 0.00 0.00 0.00 77 1012.4
20260905202134 21 338 6.4 19.3 0.00 0.00 0.00 76 1012.4
20260905202056 21 342 8.0 19.3 0.00 0.00 0.00 76 1012.4
20260905202023 21 335 9.7 19.3 0.00 0.00 0.00 75 1012.4
20260905201906 21 349 9.7 19.3 0.00 0.00 0.00 73 1012.4
20260905201827 21 5 9.7 19.3 0.00 0.00 0.00 75 1012.4
20260905201708 21 338 8.0 19.3 0.00 0.00 0.00 76 1012.3
20260905201623 21 38 6.4 19.3 0.00 0.00 0.00 76 1012.3
20260905201452 21 355 9.7 19.3 0.00 0.00 0.00 76 1012.4
20260905201415 21 5 11.3 19.3 0.00 0.00 0.00 75 1012.4
20260905201240 21 355 9.7 19.3 0.00 0.00 0.00 76 1012.4
20260905201140 21 339 9.7 19.3 0.00 0.00 0.00 75 1012.4
20260905201025 21 331 12.9 19.3 0.00 0.00 0.00 74 1012.3
20260905200945 21 346 12.9 19.3 0.00 0.00 0.00 74 1012.4
20260905200912 21 315 11.3 20.9 0.00 0.00 0.00 76 1012.4
20260905200817 21 315 11.3 20.9 0.00 0.00 0.00 75 1012.4
20260905200738 21 325 12.9 20.9 0.00 0.00 0.00 75 1012.4
20260905200610 21 337 14.5 20.9 0.00 0.00 0.00 74 1012.3
20260905200525 21 350 14.5 20.9 0.00 0.00 0.00 74 1012.3
20260905200334 21 329 11.3 20.9 0.00 0.00 0.00 75 1012.3
20260905200249 21 331 9.7 20.9 0.00 0.00 0.00 74 1012.3
20260905200119 21 355 9.7 20.9 0.00 0.00 0.00 73 1012.3
20260905200041 22 24 9.7 20.9 0.00 0.00 0.00 73 1012.3
20260905195843 22 350 8.0 20.9 0.00 0.00 0.00 73 1012.3
20260905195804 22 325 8.0 20.9 0.00 0.00 0.00 73 1012.3
20260905195711 22 355 9.7 20.9 0.00 0.00 0.00 73 1012.3
20260905195632 22 346 11.3 20.9 0.00 0.00 0.00 73 1012.3
20260905195445 22 339 14.5 20.9 0.00 0.00 0.00 76 1012.3
20260905195337 22 335 14.5 20.9 0.00 0.00 0.00 76 1012.3
20260905195240 22 343 14.5 20.9 0.00 0.00 0.00 75 1012.3
20260905195201 22 331 16.1 20.9 0.00 0.00 0.00 75 1012.4
20260905195102 21 5 14.5 20.9 0.00 0.00 0.00 75 1012.4
20260905194909 21 318 12.9 20.9 0.00 0.00 0.00 75 1012.4
20260905194723 21 324 12.9 20.9 0.00 0.00 0.00 75 1012.3
20260905194631 21 326 11.3 20.9 0.00 0.00 0.00 77 1012.4
20260905194553 21 331 9.7 20.9 0.00 0.00 0.00 77 1012.4
20260905194402 21 311 11.3 22.5 0.00 0.00 0.00 77 1012.4
20260905194317 21 313 14.5 22.5 0.00 0.00 0.00 76 1012.4
20260905194148 21 355 14.5 22.5 0.00 0.00 0.00 76 1012.4
20260905194049 21 298 12.9 22.5 0.00 0.00 0.00 75 1012.4
20260905194012 21 333 14.5 22.5 0.00 0.00 0.00 76 1012.4
20260905193915 21 350 12.9 22.5 0.00 0.00 0.00 75 1012.4
20260905193838 21 5 12.9 22.5 0.00 0.00 0.00 75 1012.4
20260905193708 21 53 11.3 22.5 0.00 0.00 0.00 75 1012.4
20260905193625 21 13 14.5 22.5 0.00 0.00 0.00 74 1012.4
20260905193453 21 355 12.9 20.9 0.00 0.00 0.00 75 1012.4
20260905193352 21 348 12.9 20.9 0.00 0.00 0.00 75 1012.4
20260905193241 21 336 14.5 20.9 0.00 0.00 0.00 74 1012.4
20260905193203 21 355 11.3 20.9 0.00 0.00 0.00 76 1012.3
20260905193004 21 14 9.7 16.1 0.00 0.00 0.00 75 1012.3
20260905192925 21 330 9.7 16.1 0.00 0.00 0.00 75 1012.3
20260905192737 21 360 8.0 17.7 0.00 0.00 0.00 74 1012.2
20260905192632 21 24 11.3 17.7 0.00 0.00 0.00 73 1012.3
20260905192605 21 332 11.3 17.7 0.00 0.00 0.00 74 1012.3
20260905192508 21 331 11.3 17.7 0.00 0.00 0.00 74 1012.3
20260905192430 21 330 9.7 17.7 0.00 0.00 0.00 76 1012.3
20260905192250 21 319 4.8 17.7 0.00 0.00 0.00 75 1012.2
20260905192148 21 350 4.8 17.7 0.00 0.00 0.00 74 1012.3
20260905192017 21 38 9.7 17.7 0.00 0.00 0.00 75 1012.3
20260905191917 21 5 9.7 17.7 0.00 0.00 0.00 74 1012.3
20260905191821 21 336 9.7 14.5 0.00 0.00 0.00 75 1012.3
20260905191744 21 329 8.0 12.9 0.00 0.00 0.00 77 1012.3
20260905191552 21 344 4.8 8.0 0.00 0.00 0.00 75 1012.3
20260905191453 21 311 4.8 16.1 0.00 0.00 0.00 76 1012.4
20260905191334 21 355 3.2 17.7 0.00 0.00 0.00 76 1012.4
20260905191256 21 355 3.2 17.7 0.00 0.00 0.00 76 1012.3
20260905191217 21 341 3.2 17.7 0.00 0.00 0.00 76 1012.4
20260905191120 21 331 4.8 17.7 0.00 0.00 0.00 77 1012.4
20260905191041 21 341 4.8 17.7 0.00 0.00 0.00 76 1012.4
20260905190910 21 36 6.4 19.3 0.00 0.00 0.00 77 1012.4
20260905190829 21 350 6.4 19.3 0.00 0.00 0.00 77 1012.4
20260905190659 21 5 11.3 19.3 0.00 0.00 0.00 76 1012.4
20260905190622 21 325 9.7 19.3 0.00 0.00 0.00 76 1012.4
20260905190507 21 5 6.4 19.3 0.00 0.00 0.00 76 1012.4
20260905190407 21 360 6.4 19.3 0.00 0.00 0.00 75 1012.4
20260905190339 21 355 4.8 19.3 0.00 0.00 0.00 75 1012.4
20260905190209 21 22 11.3 19.3 0.00 0.00 0.00 75 1012.4
20260905190123 21 22 11.3 19.3 0.00 0.00 0.00 76 1012.4
20260905185934 21 11 8.0 19.3 0.00 0.00 0.00 77 1012.4
20260905185829 21 315 9.7 19.3 0.00 0.00 0.00 77 1012.5
20260905185751 21 340 11.3 19.3 0.00 0.00 0.00 77 1012.5
20260905185639 21 343 11.3 19.3 0.00 0.00 0.00 76 1012.5
20260905185600 21 13 9.7 20.9 0.00 0.00 0.00 77 1012.5
20260905185453 20 360 11.3 20.9 0.00 0.00 0.00 76 1012.5
20260905185415 20 360 11.3 20.9 0.00 0.00 0.00 76 1012.5
20260905185246 20 326 12.9 20.9 0.00 0.00 0.00 77 1012.6
20260905185202 20 323 11.3 20.9 0.00 0.00 0.00 76 1012.5
20260905185031 20 331 12.9 20.9 0.00 0.00 0.00 76 1012.6
20260905184931 20 341 12.9 20.9 0.00 0.00 0.00 76 1012.6
20260905184802 20 313 11.3 20.9 0.00 0.00 0.00 77 1012.5
20260905184644 20 316 9.7 20.9 0.00 0.00 0.00 78 1012.5
20260905184606 20 13 9.7 22.5 0.00 0.00 0.00 77 1012.6
20260905184415 20 355 11.3 22.5 0.00 0.00 0.00 78 1012.5
20260905184333 20 326 12.9 22.5 0.00 0.00 0.00 77 1012.5
20260905184203 20 348 11.3 22.5 0.00 0.00 0.00 78 1012.5
20260905184126 20 333 12.9 22.5 0.00 0.00 0.00 78 1012.5
20260905183929 20 360 16.1 22.5 0.00 0.00 0.00 76 1012.5
20260905183852 20 342 17.7 22.5 0.00 0.00 0.00 76 1012.5
20260905183735 20 355 16.1 22.5 0.00 0.00 0.00 77 1012.5
20260905183658 20 324 12.9 20.9 0.00 0.00 0.00 77 1012.5
20260905183458 20 355 14.5 20.9 0.00 0.00 0.00 78 1012.5
20260905183420 20 340 14.5 20.9 0.00 0.00 0.00 78 1012.5
20260905183231 20 321 9.7 22.5 0.00 0.00 0.00 78 1012.5
20260905183149 20 355 6.4 22.5 0.00 0.00 0.00 78 1012.5
20260905183019 20 11 6.4 25.7 0.00 0.00 0.00 76 1012.5
20260905182941 20 62 6.4 29.0 0.00 0.00 0.00 76 1012.5
20260905182742 21 360 11.3 29.0 0.00 0.00 0.00 76 1012.6
20260905182704 21 347 12.9 29.0 0.00 0.00 0.00 76 1012.5
20260905182609 21 333 14.5 29.0 0.00 0.00 0.00 76 1012.6
20260905182530 21 323 16.1 29.0 0.00 0.00 0.00 75 1012.6
20260905182401 21 327 17.7 29.0 0.00 0.00 0.00 74 1012.6
20260905182306 21 300 17.7 29.0 0.00 0.00 0.00 74 1012.6
20260905182113 21 300 12.9 29.0 0.00 0.00 0.00 75 1012.6
20260905182035 21 317 12.9 19.3 0.00 0.00 0.00 76 1012.6
20260905181842 21 338 11.3 19.3 0.00 0.00 0.00 78 1012.6
20260905181742 21 336 11.3 19.3 0.00 0.00 0.00 79 1012.6
20260905181647 20 343 12.9 20.9 0.00 0.00 0.00 80 1012.6
20260905181528 20 331 14.5 20.9 0.00 0.00 0.00 80 1012.6
20260905181432 20 355 14.5 20.9 0.00 0.00 0.00 81 1012.6
20260905181353 20 343 11.3 20.9 0.00 0.00 0.00 81 1012.7
20260905181202 20 342 9.7 20.9 0.00 0.00 0.00 80 1012.7
20260905181117 20 5 9.7 20.9 0.00 0.00 0.00 80 1012.7
20260905180929 20 327 11.3 20.9 0.00 0.00 0.00 80 1012.6
20260905180844 20 333 12.9 20.9 0.00 0.00 0.00 80 1012.6
20260905180717 20 28 8.0 14.5 0.00 0.00 0.00 81 1012.6
20260905180617 20 328 8.0 14.5 0.00 0.00 0.00 82 1012.7
20260905180447 19 342 8.0 19.3 0.00 0.00 0.00 82 1012.7
20260905180342 19 321 9.7 19.3 0.00 0.00 0.00 83 1012.7
20260905180224 19 341 8.0 19.3 0.00 0.00 0.00 84 1012.6
20260905180145 19 328 8.0 20.9 0.00 0.00 0.00 83 1012.7
20260905180015 19 348 6.4 20.9 0.00 0.00 0.00 83 1012.6
20260905175929 19 360 6.4 20.9 0.00 0.00 0.00 82 1012.6
20260905175740 19 12 12.9 22.5 0.00 0.00 0.00 81 1012.7
20260905175654 19 340 12.9 22.5 0.00 0.00 0.00 81 1012.7
20260905175508 19 355 12.9 22.5 0.00 0.00 0.00 81 1012.7
20260905175429 19 348 12.9 22.5 0.00 0.00 0.00 81 1012.7
20260905175232 19 337 12.9 22.5 0.00 0.00 0.00 81 1012.7
20260905175155 19 311 12.9 22.5 0.00 0.00 0.00 81 1012.7
20260905175059 19 350 14.5 22.5 0.00 0.00 0.00 81 1012.7
20260905175021 19 360 14.5 22.5 0.00 0.00 0.00 81 1012.7
20260905174823 20 348 12.9 20.9 0.00 0.00 0.00 81 1012.7
20260905174725 20 345 12.9 20.9 0.00 0.00 0.00 82 1012.7
20260905174648 20 355 11.3 20.9 0.00 0.00 0.00 81 1012.7